DW6912 Weather Reports


Display with metric or nautical units.
time (UTC)temp
F
wind
direction
speed
MPH
gust
MPH
rain 1hr
in
rain 24hr
in
rain mn
in
humidity
%
barometer
mb
20260903200659 84 192 1.0 3.0 0.01 0.20 0.15 82 1011.3
20260903200559 84 192 0.0 3.0 0.01 0.20 0.15 82 1011.3
20260903200500 84 192 0.0 3.0 0.01 0.20 0.15 82 1011.3
20260903200258 84 192 0.0 3.0 0.01 0.20 0.15 83 1011.4
20260903200200 84 192 1.0 4.0 0.01 0.20 0.15 83 1011.4
20260903200000 84 192 0.0 4.0 0.01 0.22 0.15 82 1011.4
20260903195900 84 192 1.0 4.0 0.01 0.22 0.15 81 1011.4
20260903195759 84 194 1.0 4.0 0.01 0.22 0.15 81 1011.4
20260903195659 84 180 2.0 4.0 0.01 0.22 0.15 81 1011.4
20260903195559 84 151 1.0 4.0 0.01 0.22 0.15 80 1011.4
20260903195501 84 163 1.0 4.0 0.01 0.22 0.15 80 1011.4
20260903195400 84 175 1.0 4.0 0.01 0.22 0.15 82 1011.4
20260903195300 84 193 3.0 5.0 0.01 0.22 0.15 82 1011.5
20260903195200 84 80 1.0 4.0 0.01 0.22 0.15 82 1011.5
20260903195100 84 76 0.0 4.0 0.01 0.22 0.15 81 1011.5
20260903195002 84 76 0.0 4.0 0.01 0.22 0.15 81 1011.5
20260903194900 84 283 1.0 3.0 0.01 0.22 0.15 83 1011.5
20260903194759 84 270 3.0 3.0 0.01 0.22 0.15 83 1011.5
20260903194659 84 153 1.0 3.0 0.01 0.22 0.15 84 1011.5
20260903194600 84 153 0.0 5.0 0.01 0.22 0.15 84 1011.6
20260903194501 84 153 0.0 5.0 0.01 0.22 0.15 84 1011.6
20260903194400 84 153 0.0 5.0 0.01 0.22 0.15 83 1011.6
20260903194259 84 152 0.0 5.0 0.01 0.22 0.15 82 1011.6
20260903194200 83 152 1.0 5.0 0.01 0.22 0.15 83 1011.6
20260903194058 83 153 2.0 5.0 0.01 0.22 0.15 82 1011.6
20260903194003 84 190 0.0 5.0 0.01 0.22 0.15 84 1011.7
20260903193859 84 190 1.0 5.0 0.01 0.22 0.15 83 1011.6
20260903193758 84 190 1.0 5.0 0.01 0.22 0.15 82 1011.6
20260903193659 84 207 1.0 4.0 0.01 0.22 0.15 81 1011.6
20260903193600 84 172 1.0 4.0 0.01 0.22 0.15 83 1011.6
20260903193502 84 172 1.0 4.0 0.01 0.22 0.15 83 1011.6
20260903193358 84 172 1.0 4.0 0.01 0.22 0.15 83 1011.6
20260903193259 84 171 2.0 4.0 0.01 0.22 0.15 81 1011.6
20260903193159 84 240 1.0 3.0 0.01 0.22 0.15 82 1011.6
20260903193100 84 240 0.0 3.0 0.01 0.22 0.15 81 1011.6
20260903193001 84 241 0.0 3.0 0.00 0.21 0.14 82 1011.7
20260903192859 84 241 0.0 3.0 0.00 0.21 0.14 81 1011.7
20260903192758 84 241 0.0 3.0 0.00 0.21 0.14 81 1011.7
20260903192659 84 241 0.0 3.0 0.00 0.21 0.14 81 1011.7
20260903192600 84 241 0.0 3.0 0.00 0.21 0.14 82 1011.7
20260903192502 84 241 0.0 3.0 0.00 0.21 0.14 83 1011.7
20260903192401 84 241 1.0 3.0 0.00 0.21 0.14 82 1011.7
20260903192300 84 241 0.0 4.0 0.00 0.21 0.14 81 1011.7
20260903192158 84 245 0.0 4.0 0.00 0.21 0.14 82 1011.8
20260903192101 83 245 1.0 4.0 0.00 0.21 0.14 82 1011.7
20260903192000 83 245 1.0 4.0 0.00 0.21 0.14 82 1011.8
20260903191900 83 245 0.0 4.0 0.00 0.21 0.14 82 1011.8
20260903191759 83 245 2.0 4.0 0.00 0.21 0.14 82 1011.8
20260903191700 83 245 0.0 4.0 0.00 0.21 0.14 83 1011.9
20260903191503 83 245 1.0 4.0 0.00 0.21 0.14 81 1011.9
20260903191400 83 245 0.0 4.0 0.00 0.21 0.14 84 1011.9
20260903191300 83 176 2.0 3.0 0.00 0.21 0.14 83 1011.9
20260903191159 83 176 0.0 3.0 0.00 0.21 0.14 84 1012.0
20260903190859 84 176 0.0 3.0 0.00 0.21 0.14 82 1012.1
20260903190759 84 175 1.0 3.0 0.00 0.21 0.14 83 1012.1
20260903190659 83 213 1.0 2.0 0.00 0.21 0.14 82 1012.1
20260903190559 83 213 0.0 2.0 0.00 0.21 0.14 81 1012.0
20260903190359 83 213 0.0 2.0 0.00 0.21 0.14 83 1012.1
20260903190300 83 213 0.0 2.0 0.00 0.21 0.14 82 1012.2
20260903190159 83 213 0.0 2.0 0.00 0.21 0.14 81 1012.2
20260903190059 83 213 0.0 2.0 0.01 0.21 0.14 81 1012.2
20260903190000 83 213 1.0 2.0 0.01 0.25 0.14 81 1012.2
20260903185759 83 212 1.0 3.0 0.01 0.25 0.14 82 1012.3
20260903185700 83 212 0.0 3.0 0.01 0.25 0.14 84 1012.3
20260903185600 83 212 0.0 3.0 0.01 0.25 0.14 84 1012.3
20260903185501 83 212 0.0 3.0 0.01 0.25 0.14 84 1012.4
20260903185359 83 212 1.0 3.0 0.01 0.25 0.14 83 1012.4
20260903185259 83 212 0.0 3.0 0.01 0.25 0.14 82 1012.4
20260903185159 83 212 1.0 3.0 0.01 0.25 0.14 83 1012.4
20260903185101 83 212 1.0 3.0 0.01 0.25 0.14 83 1012.4
20260903185000 83 212 0.0 4.0 0.01 0.25 0.14 83 1012.5
20260903184800 83 212 0.0 4.0 0.01 0.25 0.14 83 1012.5
20260903184700 83 212 1.0 4.0 0.01 0.25 0.14 84 1012.5
20260903184600 83 232 0.0 4.0 0.01 0.25 0.14 83 1012.6
20260903184501 83 232 1.0 4.0 0.01 0.25 0.14 83 1012.5
20260903184400 83 232 0.0 4.0 0.01 0.25 0.14 81 1012.5
20260903184259 83 232 1.0 4.0 0.01 0.25 0.14 81 1012.6
20260903184159 83 232 2.0 4.0 0.01 0.25 0.14 81 1012.5
20260903184100 83 244 3.0 4.0 0.01 0.25 0.14 81 1012.6
20260903184002 83 229 1.0 3.0 0.01 0.25 0.14 82 1012.6
20260903183759 83 229 0.0 3.0 0.01 0.25 0.14 80 1012.6
20260903183658 83 229 2.0 3.0 0.01 0.25 0.14 80 1012.6
20260903183559 83 228 2.0 3.0 0.01 0.25 0.14 80 1012.7
20260903183501 83 199 2.0 2.0 0.01 0.25 0.14 82 1012.7
20260903183358 83 140 0.0 2.0 0.01 0.25 0.14 83 1012.7
20260903183159 83 139 0.0 2.0 0.01 0.25 0.14 82 1012.6
20260903183100 83 139 0.0 2.0 0.01 0.25 0.14 81 1012.7
20260903183002 83 205 2.0 4.0 0.01 0.25 0.14 82 1012.7
20260903182900 83 238 1.0 4.0 0.01 0.25 0.14 81 1012.8
20260903182759 83 259 1.0 4.0 0.01 0.25 0.14 80 1012.7
20260903182701 83 259 0.0 4.0 0.01 0.25 0.14 79 1012.7
20260903182559 83 259 1.0 4.0 0.01 0.25 0.14 79 1012.8
20260903182500 84 259 2.0 4.0 0.01 0.25 0.14 81 1012.8
20260903182159 84 259 1.0 4.0 0.01 0.25 0.14 79 1012.8
20260903182002 84 175 1.0 3.0 0.02 0.25 0.14 81 1012.8
20260903181901 84 175 1.0 3.0 0.02 0.25 0.14 81 1012.8
20260903181759 83 138 0.0 3.0 0.02 0.25 0.14 81 1012.8
20260903181659 83 138 2.0 4.0 0.02 0.25 0.14 81 1012.8
20260903181600 83 281 1.0 4.0 0.02 0.25 0.14 81 1012.8
20260903181502 83 281 2.0 4.0 0.02 0.25 0.14 80 1012.8
20260903181400 83 281 2.0 4.0 0.02 0.25 0.14 81 1012.8
20260903181259 83 215 1.0 4.0 0.02 0.25 0.14 80 1012.8
20260903181200 83 215 1.0 4.0 0.02 0.25 0.14 80 1012.8
20260903181100 83 215 0.0 4.0 0.02 0.25 0.14 81 1012.9
20260903181003 83 156 2.0 4.0 0.02 0.25 0.14 82 1013.0
20260903180900 83 98 0.0 4.0 0.02 0.25 0.14 81 1013.0
20260903180759 83 96 2.0 4.0 0.02 0.25 0.14 81 1013.1
20260903180700 83 256 2.0 4.0 0.02 0.25 0.14 79 1013.1
20260903180358 83 213 2.0 4.0 0.02 0.25 0.14 81 1013.1
20260903180200 83 211 1.0 4.0 0.02 0.25 0.14 81 1013.1
20260903180100 83 211 1.0 4.0 0.01 0.24 0.13 80 1013.0
20260903180003 83 206 2.0 3.0 0.01 0.24 0.13 81 1013.0
20260903175900 83 205 1.0 3.0 0.01 0.31 0.13 81 1013.0
20260903175759 83 205 0.0 3.0 0.01 0.31 0.13 82 1013.1
20260903175601 83 277 2.0 3.0 0.01 0.31 0.13 81 1013.0
20260903175501 83 277 1.0 4.0 0.01 0.31 0.13 81 1013.1
20260903175359 83 277 1.0 4.0 0.01 0.31 0.13 81 1013.1
20260903175300 83 273 0.0 4.0 0.01 0.31 0.13 81 1013.2
20260903175159 83 273 0.0 4.0 0.01 0.31 0.13 81 1013.2
20260903175100 83 65 0.0 4.0 0.01 0.31 0.13 82 1013.2
20260903175001 83 80 3.0 4.0 0.01 0.31 0.13 82 1013.2
20260903174900 83 262 1.0 4.0 0.01 0.31 0.13 81 1013.2
20260903174800 83 262 0.0 4.0 0.01 0.31 0.13 81 1013.1
20260903174659 82 262 1.0 4.0 0.01 0.31 0.13 82 1013.2
20260903174559 82 262 1.0 4.0 0.01 0.31 0.13 82 1013.2
20260903174502 82 199 0.0 3.0 0.01 0.31 0.13 82 1013.2
20260903174400 82 199 1.0 3.0 0.01 0.31 0.13 81 1013.2
20260903174259 82 199 1.0 3.0 0.01 0.31 0.13 82 1013.2
20260903174200 82 198 1.0 3.0 0.01 0.31 0.13 81 1013.2
20260903174000 82 198 2.0 3.0 0.01 0.31 0.13 82 1013.3
20260903173859 82 198 2.0 3.0 0.01 0.31 0.13 82 1013.3
20260903173700 82 181 2.0 7.0 0.01 0.31 0.13 83 1013.2
20260903173558 82 273 2.0 7.0 0.01 0.31 0.13 82 1013.2
20260903173503 82 242 1.0 7.0 0.01 0.31 0.13 83 1013.2
20260903173359 82 237 0.0 7.0 0.01 0.31 0.13 83 1013.2
20260903173259 82 237 0.0 7.0 0.01 0.31 0.13 82 1013.2
20260903173159 82 237 2.0 7.0 0.01 0.31 0.13 83 1013.2
20260903173101 82 237 2.0 7.0 0.01 0.31 0.13 84 1013.2
20260903173003 82 224 3.0 7.0 0.01 0.31 0.13 84 1013.1
20260903172859 82 145 2.0 7.0 0.01 0.31 0.13 84 1013.2
20260903172800 81 243 2.0 3.0 0.01 0.31 0.13 83 1013.2
20260903172700 81 264 1.0 3.0 0.01 0.31 0.13 84 1013.2
20260903172601 81 264 1.0 3.0 0.01 0.31 0.13 84 1013.2
20260903172502 81 264 0.0 3.0 0.01 0.31 0.13 83 1013.2
20260903172400 81 264 2.0 3.0 0.01 0.31 0.13 86 1013.2
20260903172201 81 250 1.0 3.0 0.01 0.31 0.13 85 1013.3
20260903172003 81 258 1.0 3.0 0.00 0.30 0.12 83 1013.4
20260903171858 81 258 2.0 4.0 0.00 0.30 0.12 84 1013.4
20260903171759 81 258 0.0 4.0 0.00 0.30 0.12 85 1013.4
20260903171659 81 258 2.0 4.0 0.00 0.30 0.12 84 1013.4
20260903171504 81 258 1.0 4.0 0.00 0.30 0.12 84 1013.4
20260903171400 81 258 1.0 4.0 0.00 0.30 0.12 85 1013.4
20260903171300 81 258 0.0 7.0 0.00 0.30 0.12 85 1013.4
20260903171159 80 258 1.0 7.0 0.00 0.30 0.12 85 1013.5
20260903171059 80 258 1.0 7.0 0.00 0.30 0.12 85 1013.5
20260903170859 80 258 0.0 7.0 0.00 0.30 0.12 85 1013.6
20260903170800 80 258 0.0 7.0 0.00 0.30 0.12 87 1013.6
20260903170700 80 258 0.0 7.0 0.00 0.30 0.12 85 1013.6
20260903170600 80 258 1.0 7.0 0.00 0.30 0.12 85 1013.7
20260903170502 80 258 1.0 7.0 0.00 0.30 0.12 85 1013.8
20260903170400 80 258 2.0 7.0 0.00 0.30 0.12 85 1013.8
20260903170300 80 267 3.0 6.0 0.00 0.30 0.12 85 1013.8
20260903170200 80 248 1.0 6.0 0.00 0.30 0.12 85 1013.9
20260903170059 80 262 3.0 6.0 0.00 0.30 0.12 87 1013.9
20260903170003 80 255 3.0 4.0 0.00 0.30 0.12 85 1013.9
20260903165859 80 265 1.0 4.0 0.00 0.47 0.12 85 1013.9
20260903165759 80 265 2.0 4.0 0.00 0.47 0.12 85 1013.9
20260903165659 80 265 1.0 4.0 0.00 0.47 0.12 87 1013.9
20260903165600 80 265 1.0 4.0 0.00 0.47 0.12 85 1014.0
20260903165359 80 302 1.0 4.0 0.00 0.47 0.12 84 1013.9
20260903165259 80 254 2.0 4.0 0.00 0.47 0.12 85 1013.9
20260903165200 80 234 1.0 4.0 0.00 0.47 0.12 85 1014.0
20260903165100 80 233 2.0 5.0 0.00 0.47 0.12 87 1014.1
20260903164859 80 270 0.0 5.0 0.01 0.47 0.12 86 1014.0
20260903164800 79 270 1.0 7.0 0.01 0.47 0.12 87 1014.1
20260903164700 79 270 1.0 7.0 0.01 0.47 0.12 85 1014.1
20260903164600 79 270 2.0 7.0 0.01 0.47 0.12 85 1014.1
20260903164503 79 270 3.0 9.0 0.01 0.47 0.12 84 1014.1
20260903164359 79 273 2.0 9.0 0.01 0.47 0.12 84 1014.1
20260903164300 79 273 1.0 9.0 0.01 0.47 0.12 84 1014.1
20260903164101 79 257 2.0 9.0 0.01 0.47 0.12 85 1014.2
20260903164003 79 260 1.0 9.0 0.01 0.47 0.12 84 1014.2
20260903163859 79 244 2.0 9.0 0.01 0.47 0.12 85 1014.2
20260903163759 79 238 2.0 9.0 0.01 0.47 0.12 86 1014.2
20260903163559 79 275 4.0 9.0 0.01 0.47 0.12 85 1014.1
20260903163502 80 235 2.0 4.0 0.01 0.47 0.12 87 1014.1
20260903163359 80 235 3.0 6.0 0.01 0.47 0.12 87 1014.1
20260903163258 80 233 2.0 6.0 0.01 0.47 0.12 86 1014.1
20260903163200 80 233 3.0 6.0 0.01 0.47 0.12 85 1014.1
20260903163059 80 207 1.0 6.0 0.01 0.47 0.12 87 1014.1
20260903163001 80 265 2.0 6.0 0.01 0.47 0.12 87 1014.1
20260903162859 80 265 1.0 6.0 0.01 0.47 0.12 87 1014.1
20260903162759 79 265 0.0 6.0 0.01 0.47 0.12 87 1014.2
20260903162700 79 266 1.0 6.0 0.01 0.47 0.12 87 1014.2
20260903162600 79 267 1.0 6.0 0.01 0.47 0.12 88 1014.2
20260903162400 79 355 0.0 4.0 0.01 0.47 0.12 90 1014.2
20260903162259 79 360 1.0 4.0 0.01 0.47 0.12 89 1014.4
20260903162158 79 360 2.0 4.0 0.01 0.47 0.12 89 1014.3
20260903162100 79 278 0.0 4.0 0.01 0.47 0.12 89 1014.5
20260903162004 79 278 1.0 4.0 0.01 0.47 0.12 87 1014.5
20260903161859 79 278 2.0 4.0 0.01 0.47 0.12 87 1014.5
20260903161700 79 271 1.0 4.0 0.01 0.47 0.12 90 1014.5
20260903161559 79 271 0.0 4.0 0.01 0.47 0.12 90 1014.4
20260903161503 79 271 0.0 4.0 0.01 0.47 0.12 91 1014.4
20260903161401 78 271 0.0 4.0 0.01 0.47 0.12 90 1014.4
20260903161200 78 271 1.0 4.0 0.01 0.47 0.12 89 1014.4
20260903161059 78 271 3.0 4.0 0.01 0.47 0.12 92 1014.4
20260903161003 78 239 0.0 2.0 0.01 0.47 0.12 91 1014.5
20260903160859 78 239 1.0 2.0 0.01 0.47 0.12 91 1014.5
20260903160759 78 250 0.0 2.0 0.01 0.47 0.12 92 1014.5
20260903160559 77 250 0.0 2.0 0.01 0.47 0.12 91 1014.6
20260903160502 77 250 0.0 2.0 0.01 0.47 0.12 90 1014.6
20260903160400 77 250 2.0 2.0 0.01 0.47 0.12 92 1014.6
20260903160259 77 250 0.0 3.0 0.01 0.47 0.12 93 1014.7
20260903160200 77 250 0.0 3.0 0.01 0.47 0.12 92 1014.7
20260903160100 77 250 0.0 3.0 0.01 0.47 0.12 92 1014.7
20260903160001 77 250 0.0 3.0 0.01 0.47 0.12 92 1014.7
20260903155900 77 250 0.0 3.0 0.01 0.56 0.12 92 1014.7
20260903155759 77 250 0.0 3.0 0.01 0.56 0.12 92 1014.7
20260903155659 77 250 0.0 3.0 0.01 0.56 0.12 92 1014.7
20260903155559 77 250 0.0 3.0 0.01 0.56 0.12 92 1014.6
20260903155503 77 250 0.0 3.0 0.01 0.56 0.12 93 1014.7
20260903155359 77 250 1.0 3.0 0.01 0.56 0.12 92 1014.8
20260903155159 77 252 0.0 3.0 0.01 0.56 0.12 92 1014.8
20260903155059 77 252 1.0 3.0 0.00 0.55 0.11 91 1014.9
20260903155002 77 252 0.0 3.0 0.00 0.55 0.11 92 1015.0
20260903154859 77 252 1.0 3.0 0.00 0.55 0.11 91 1015.1
20260903154759 77 252 0.0 3.0 0.00 0.55 0.11 91 1015.1
20260903154700 77 252 2.0 3.0 0.00 0.55 0.11 91 1015.1
20260903154600 77 174 0.0 2.0 0.00 0.55 0.11 91 1015.1
20260903154502 77 174 0.0 2.0 0.00 0.55 0.11 91 1015.1
20260903154359 77 174 0.0 2.0 0.00 0.55 0.11 91 1015.2
20260903154258 77 174 2.0 2.0 0.00 0.55 0.11 92 1015.1
20260903154059 77 157 0.0 2.0 0.00 0.55 0.11 93 1015.1
20260903154003 77 157 0.0 2.0 0.00 0.55 0.11 93 1015.1
20260903153859 77 157 0.0 2.0 0.00 0.55 0.11 94 1015.2
20260903153801 77 157 1.0 2.0 0.00 0.55 0.11 95 1015.2
20260903153701 77 157 0.0 2.0 0.00 0.55 0.11 95 1015.2
20260903153601 76 157 0.0 2.0 0.00 0.55 0.11 95 1015.3
20260903153501 76 157 0.0 2.0 0.00 0.55 0.11 95 1015.3
20260903153358 76 157 1.0 2.0 0.00 0.55 0.11 95 1015.3
20260903153300 76 157 0.0 2.0 0.00 0.55 0.11 95 1015.3
20260903153201 76 157 0.0 2.0 0.00 0.55 0.11 95 1015.3
20260903153100 76 157 0.0 2.0 0.00 0.55 0.11 96 1015.3
20260903152859 75 157 0.0 1.0 0.00 0.55 0.11 95 1015.3
20260903152800 75 157 0.0 2.0 0.00 0.55 0.11 95 1015.2
20260903152658 75 157 0.0 2.0 0.00 0.55 0.11 95 1015.2
20260903152559 75 157 0.0 2.0 0.00 0.55 0.11 95 1015.2
20260903152500 75 157 0.0 2.0 0.00 0.55 0.11 95 1015.2
20260903152359 75 157 0.0 2.0 0.00 0.55 0.11 95 1015.2
20260903152258 75 157 0.0 2.0 0.00 0.55 0.11 95 1015.2
20260903152000 75 157 0.0 2.0 0.00 0.55 0.11 94 1015.2
20260903151858 75 157 2.0 2.0 0.00 0.55 0.11 94 1015.2
20260903151759 75 157 1.0 2.0 0.00 0.55 0.11 94 1015.2
20260903151501 75 157 1.0 2.0 0.00 0.55 0.11 95 1015.2
20260903151359 75 157 0.0 2.0 0.00 0.55 0.11 95 1015.3
20260903151259 75 157 0.0 3.0 0.00 0.55 0.11 95 1015.3
20260903151159 75 157 0.0 3.0 0.00 0.55 0.11 95 1015.3
20260903151100 75 157 1.0 3.0 0.00 0.55 0.11 95 1015.3
20260903151000 75 157 1.0 3.0 0.00 0.55 0.11 95 1015.2
20260903150859 75 157 0.0 3.0 0.00 0.55 0.11 95 1015.2
20260903150759 75 157 0.0 3.0 0.01 0.55 0.11 95 1015.3
20260903150659 75 157 1.0 3.0 0.01 0.55 0.11 94 1015.3
20260903150600 75 157 0.0 3.0 0.01 0.55 0.11 94 1015.3
20260903150400 75 157 2.0 3.0 0.01 0.55 0.11 96 1015.2
20260903150301 75 156 3.0 3.0 0.01 0.55 0.11 96 1015.1
20260903150159 75 156 0.0 0.0 0.01 0.55 0.11 96 1015.0
20260903150100 75 156 0.0 0.0 0.01 0.55 0.11 96 1015.1
20260903150000 75 156 0.0 0.0 0.01 0.55 0.11 96 1015.0
20260903145900 75 156 0.0 0.0 0.01 0.55 0.11 96 1015.0
20260903145800 75 156 0.0 0.0 0.01 0.55 0.11 96 1015.0
20260903145659 75 156 0.0 1.0 0.01 0.55 0.11 96 1015.1
20260903145559 74 156 0.0 2.0 0.01 0.55 0.11 96 1015.1
20260903145359 74 156 0.0 2.0 0.01 0.55 0.11 97 1015.2
20260903145259 74 156 0.0 2.0 0.01 0.55 0.11 97 1015.2
20260903145158 74 156 0.0 2.0 0.01 0.55 0.11 97 1015.2
20260903145059 74 156 0.0 2.0 0.01 0.55 0.11 97 1015.3
20260903145001 74 156 0.0 2.0 0.01 0.55 0.11 97 1015.3
20260903144859 74 156 0.0 2.0 0.01 0.55 0.11 97 1015.4
20260903144759 74 156 0.0 2.0 0.01 0.55 0.11 97 1015.4
20260903144658 74 155 1.0 5.0 0.01 0.55 0.11 97 1015.4
20260903144559 74 155 1.0 5.0 0.01 0.55 0.11 97 1015.3
20260903144501 74 155 0.0 5.0 0.01 0.55 0.11 97 1015.3
20260903144359 74 155 0.0 5.0 0.01 0.55 0.11 98 1015.2
20260903144300 74 155 0.0 5.0 0.01 0.55 0.11 98 1015.2
20260903144159 74 155 0.0 5.0 0.01 0.55 0.11 98 1015.2
20260903144059 74 155 0.0 5.0 0.01 0.55 0.11 98 1015.3
20260903144000 74 156 1.0 5.0 0.01 0.55 0.11 97 1015.4
20260903143859 74 156 1.0 5.0 0.01 0.55 0.11 97 1015.5
20260903143759 74 155 2.0 5.0 0.01 0.55 0.11 97 1015.6
20260903143659 74 147 1.0 2.0 0.01 0.55 0.11 97 1015.6
20260903143559 74 137 1.0 2.0 0.01 0.55 0.11 97 1015.7
20260903143500 74 137 0.0 2.0 0.01 0.55 0.11 97 1015.7
20260903143258 75 137 0.0 2.0 0.01 0.55 0.11 98 1015.6
20260903142859 74 137 0.0 2.0 0.01 0.55 0.11 97 1016.0
20260903142800 74 137 0.0 2.0 0.01 0.55 0.11 97 1016.0
20260903142659 74 137 1.0 2.0 0.01 0.55 0.11 97 1016.0
20260903142600 74 137 0.0 2.0 0.01 0.55 0.11 97 1015.9
20260903142502 74 137 0.0 2.0 0.01 0.55 0.11 97 1015.9
20260903142359 74 137 0.0 2.0 0.01 0.55 0.11 97 1015.8
20260903142300 74 137 0.0 2.0 0.01 0.55 0.11 97 1015.8
20260903142059 74 137 1.0 3.0 0.01 0.55 0.11 97 1015.6
20260903142002 74 137 1.0 3.0 0.01 0.55 0.11 97 1015.6
20260903141900 74 137 1.0 3.0 0.01 0.55 0.11 97 1015.5
20260903141800 74 137 2.0 3.0 0.01 0.55 0.11 97 1015.5
20260903141701 74 137 0.0 3.0 0.01 0.55 0.11 97 1015.6
20260903141600 73 137 1.0 3.0 0.01 0.55 0.11 97 1015.5
20260903141503 73 137 1.0 3.0 0.01 0.55 0.11 97 1015.5
20260903141300 73 137 2.0 3.0 0.01 0.55 0.11 97 1015.3
20260903141159 73 82 0.0 0.0 0.01 0.55 0.11 97 1015.4
20260903141059 73 46 0.0 0.0 0.01 0.55 0.11 98 1015.5
20260903140900 72 46 0.0 0.0 0.00 0.54 0.10 97 1015.8
20260903140801 72 46 0.0 0.0 0.00 0.54 0.10 98 1015.9
20260903140700 72 46 0.0 0.0 0.00 0.54 0.10 98 1015.9
20260903140600 72 46 0.0 0.0 0.00 0.54 0.10 98 1016.0
20260903140358 72 46 0.0 0.0 0.00 0.54 0.10 98 1015.8
20260903140159 72 46 0.0 0.0 0.00 0.54 0.10 98 1015.8
20260903140058 72 46 0.0 1.0 0.00 0.54 0.10 98 1015.7
20260903140003 72 46 0.0 1.0 0.00 0.54 0.10 98 1015.8
20260903135859 72 46 0.0 1.0 0.00 0.54 0.10 98 1015.7
20260903135759 72 46 0.0 1.0 0.00 0.54 0.10 98 1015.7
20260903135659 71 46 0.0 1.0 0.00 0.54 0.10 98 1015.8
20260903135558 71 46 0.0 1.0 0.00 0.54 0.10 98 1015.9
20260903135359 71 46 0.0 1.0 0.00 0.54 0.10 98 1015.9
20260903135259 71 46 0.0 2.0 0.00 0.54 0.10 98 1015.8
20260903135159 71 46 0.0 2.0 0.00 0.54 0.10 98 1015.7
20260903135100 71 46 1.0 2.0 0.00 0.54 0.10 98 1015.8
20260903135004 71 46 0.0 2.0 0.00 0.54 0.10 98 1015.9
20260903134859 71 46 0.0 4.0 0.00 0.54 0.10 98 1016.0
20260903134700 71 46 0.0 9.0 0.00 0.54 0.10 98 1016.0
20260903134559 71 46 1.0 9.0 0.00 0.54 0.10 98 1016.1
20260903134502 71 46 1.0 9.0 0.00 0.54 0.10 98 1016.2
20260903134359 71 46 0.0 9.0 0.00 0.54 0.10 98 1016.3
20260903134300 71 46 1.0 9.0 0.00 0.54 0.10 98 1016.3
20260903134201 71 46 1.0 9.0 0.00 0.54 0.10 98 1016.3
20260903134100 71 46 2.0 9.0 0.00 0.54 0.10 98 1016.3
20260903134000 71 46 2.0 9.0 0.00 0.54 0.10 98 1016.4
20260903133900 71 19 5.0 9.0 0.00 0.54 0.10 98 1016.5
20260903133659 71 260 2.0 7.0 0.00 0.54 0.10 99 1016.3
20260903133559 71 254 1.0 7.0 0.00 0.54 0.10 99 1016.1
20260903133501 71 254 2.0 7.0 0.00 0.54 0.10 99 1016.3
20260903133359 71 221 4.0 7.0 0.00 0.54 0.10 99 1016.6
20260903133159 71 315 5.0 5.0 0.00 0.54 0.10 99 1016.7
20260903133059 71 324 3.0 4.0 0.00 0.54 0.10 99 1016.5
20260903133004 72 323 3.0 4.0 0.00 0.54 0.10 99 1016.0
20260903132859 72 323 4.0 4.0 0.00 0.54 0.10 99 1015.5
20260903132759 72 94 3.0 3.0 0.00 0.54 0.10 99 1015.2
20260903132659 72 94 1.0 2.0 0.00 0.54 0.10 99 1015.0
20260903132559 72 94 2.0 2.0 0.00 0.54 0.10 99 1014.9
20260903132500 71 94 0.0 2.0 0.00 0.54 0.10 99 1015.0
20260903132400 71 94 0.0 2.0 0.00 0.54 0.10 99 1015.0
20260903132259 71 94 1.0 2.0 0.00 0.54 0.10 99 1015.0
20260903132159 71 94 1.0 2.0 0.00 0.54 0.10 99 1015.0
20260903132059 71 94 1.0 2.0 0.00 0.54 0.10 99 1015.0
20260903132000 71 94 0.0 2.0 0.00 0.54 0.10 99 1015.1
20260903131859 71 94 0.0 2.0 0.00 0.54 0.10 99 1015.2
20260903131559 71 94 1.0 2.0 0.00 0.54 0.10 99 1015.3
20260903131504 71 94 1.0 2.0 0.00 0.54 0.10 99 1015.2
20260903131400 71 94 1.0 2.0 0.00 0.54 0.10 99 1015.2
20260903131259 71 94 1.0 2.0 0.00 0.54 0.10 99 1015.2
20260903131200 71 94 2.0 2.0 0.00 0.54 0.10 99 1015.1
20260903131100 71 94 0.0 2.0 0.00 0.54 0.10 99 1015.1
20260903131000 71 94 0.0 2.0 0.00 0.54 0.10 99 1015.2
20260903130759 71 94 1.0 2.0 0.00 0.54 0.10 99 1015.2
20260903130658 71 94 1.0 2.0 0.00 0.54 0.10 99 1015.2
20260903130502 71 94 1.0 2.0 0.00 0.54 0.10 99 1015.3
20260903130359 71 94 1.0 2.0 0.00 0.54 0.10 99 1015.4
20260903130259 71 94 0.0 2.0 0.00 0.54 0.10 99 1015.5
20260903130059 71 94 0.0 0.0 0.01 0.54 0.10 99 1015.7
20260903130000 71 94 0.0 0.0 0.01 0.54 0.10 99 1015.6
20260903125858 71 94 0.0 0.0 0.01 0.54 0.10 99 1015.7
20260903125757 70 94 0.0 0.0 0.01 0.54 0.10 99 1015.6
20260903125658 70 94 0.0 1.0 0.01 0.54 0.10 99 1015.6
20260903125558 70 94 0.0 1.0 0.01 0.54 0.10 99 1015.5
20260903125500 70 94 0.0 1.0 0.01 0.54 0.10 99 1015.6
20260903125258 70 94 0.0 2.0 0.01 0.54 0.10 99 1015.5
20260903125159 70 94 0.0 3.0 0.01 0.54 0.10 99 1015.5
20260903125100 70 94 0.0 3.0 0.01 0.54 0.10 99 1015.6
20260903125000 70 94 0.0 3.0 0.01 0.54 0.10 99 1015.5
20260903124858 70 94 0.0 3.0 0.01 0.54 0.10 99 1015.5
20260903124701 70 94 0.0 3.0 0.01 0.54 0.10 99 1015.4
20260903124459 70 94 0.0 3.0 0.01 0.54 0.10 99 1015.4
20260903124358 70 94 1.0 3.0 0.01 0.54 0.10 99 1015.5
20260903124259 70 94 1.0 3.0 0.01 0.54 0.10 99 1015.5
20260903124159 70 94 0.0 2.0 0.01 0.54 0.10 99 1015.5
20260903124059 70 94 1.0 2.0 0.01 0.54 0.10 99 1015.5
20260903123959 70 94 2.0 2.0 0.01 0.54 0.10 99 1015.5
20260903123858 70 94 1.0 2.0 0.01 0.54 0.10 99 1015.6
20260903123757 70 94 0.0 2.0 0.01 0.54 0.10 99 1015.6
20260903123658 70 94 1.0 2.0 0.01 0.54 0.10 99 1015.6
20260903123558 70 94 1.0 2.0 0.01 0.54 0.10 99 1015.6
20260903123500 70 94 0.0 2.0 0.01 0.54 0.10 99 1015.5
20260903123358 70 94 0.0 2.0 0.01 0.54 0.10 99 1015.5
20260903123258 70 94 1.0 2.0 0.01 0.54 0.10 99 1015.5
20260903123159 70 94 1.0 2.0 0.01 0.54 0.10 99 1015.5
20260903123058 70 94 1.0 2.0 0.01 0.54 0.10 99 1015.4
20260903122758 70 94 1.0 2.0 0.01 0.54 0.10 100 1015.4
20260903122559 70 94 1.0 2.0 0.01 0.54 0.10 100 1015.3
20260903122459 70 94 1.0 2.0 0.01 0.54 0.10 99 1015.3
20260903122358 70 94 1.0 2.0 0.01 0.54 0.10 99 1015.3
20260903122259 70 94 0.0 2.0 0.01 0.54 0.10 99 1015.4
20260903122058 70 94 2.0 2.0 0.01 0.54 0.10 99 1015.5
20260903121857 70 94 0.0 2.0 0.01 0.54 0.10 99 1015.4
20260903121758 70 94 1.0 2.0 0.01 0.54 0.10 99 1015.5
20260903121659 70 94 2.0 2.0 0.01 0.54 0.10 99 1015.5
20260903121558 70 94 1.0 1.0 0.01 0.54 0.10 99 1015.5
20260903121500 70 94 0.0 0.0 0.01 0.54 0.10 99 1015.5
20260903121359 70 94 0.0 0.0 0.01 0.54 0.10 99 1015.5
20260903121258 70 94 0.0 0.0 0.01 0.54 0.10 99 1015.5
20260903121158 70 94 0.0 0.0 0.01 0.54 0.10 99 1015.5
20260903121057 70 94 0.0 0.0 0.02 0.54 0.10 99 1015.5
20260903120959 70 94 0.0 0.0 0.02 0.54 0.10 99 1015.6
20260903120858 70 94 0.0 0.0 0.02 0.54 0.10 99 1015.5
20260903120759 69 94 0.0 0.0 0.02 0.54 0.10 99 1015.5
20260903120557 69 94 0.0 0.0 0.02 0.54 0.10 99 1015.4
20260903120500 69 94 0.0 0.0 0.02 0.54 0.10 99 1015.3
20260903120359 69 94 0.0 0.0 0.02 0.54 0.10 99 1015.1
20260903120259 69 94 0.0 0.0 0.02 0.54 0.10 99 1015.2
20260903120158 69 94 0.0 0.0 0.01 0.53 0.09 99 1015.2
20260903120058 69 94 0.0 0.0 0.01 0.53 0.09 99 1015.2
20260903120002 69 94 0.0 0.0 0.01 0.53 0.09 99 1015.2
20260903115900 69 94 0.0 0.0 0.01 0.53 0.09 99 1015.1
20260903115759 69 94 0.0 0.0 0.01 0.53 0.09 99 1015.0
20260903115659 69 94 0.0 0.0 0.01 0.53 0.09 99 1015.0
20260903115559 69 94 0.0 0.0 0.01 0.53 0.09 99 1014.9
20260903115501 69 94 0.0 0.0 0.01 0.53 0.09 99 1014.8
20260903115259 69 94 0.0 0.0 0.01 0.53 0.09 99 1014.8
20260903115158 69 94 0.0 0.0 0.01 0.53 0.09 99 1014.8
20260903115059 69 94 0.0 0.0 0.01 0.53 0.09 99 1014.8
20260903115002 69 94 0.0 0.0 0.01 0.53 0.09 99 1014.8
20260903114900 69 94 0.0 0.0 0.01 0.53 0.09 99 1014.9
20260903114759 69 94 0.0 0.0 0.01 0.53 0.09 99 1015.0
20260903114659 69 94 0.0 0.0 0.01 0.53 0.09 99 1015.0
20260903114501 69 94 0.0 0.0 0.01 0.53 0.09 99 1015.0
20260903114359 69 94 0.0 0.0 0.01 0.53 0.09 99 1015.0
20260903114158 69 94 0.0 0.0 0.01 0.53 0.09 99 1015.0
20260903114058 69 94 0.0 0.0 0.01 0.53 0.09 99 1015.0
20260903114001 69 94 0.0 0.0 0.01 0.53 0.09 99 1015.0
20260903113859 69 94 0.0 0.0 0.01 0.53 0.09 99 1015.1
20260903113759 69 94 0.0 0.0 0.01 0.53 0.09 99 1015.2
20260903113501 69 94 0.0 0.0 0.01 0.53 0.09 99 1015.1
20260903113359 69 94 0.0 0.0 0.01 0.53 0.09 99 1015.1
20260903113259 69 94 0.0 0.0 0.01 0.53 0.09 99 1015.0
20260903113102 69 94 0.0 0.0 0.01 0.53 0.09 99 1015.0
20260903113004 69 94 0.0 0.0 0.01 0.53 0.09 99 1014.9
20260903112800 69 94 0.0 0.0 0.01 0.53 0.09 99 1014.9
20260903112503 69 94 0.0 0.0 0.01 0.53 0.09 99 1015.0
20260903112359 69 94 0.0 0.0 0.01 0.53 0.09 99 1015.2
20260903112259 69 94 0.0 0.0 0.01 0.53 0.09 99 1015.3
20260903112159 69 94 0.0 0.0 0.01 0.53 0.09 99 1015.4
20260903112059 69 94 0.0 2.0 0.01 0.53 0.09 99 1015.4
20260903112000 69 94 0.0 2.0 0.01 0.53 0.09 99 1015.4
20260903111900 69 94 0.0 2.0 0.01 0.53 0.09 99 1015.4
20260903111759 69 94 0.0 2.0 0.01 0.53 0.09 99 1015.3
20260903111659 69 94 0.0 2.0 0.01 0.53 0.09 99 1015.4
20260903111559 69 94 0.0 2.0 0.01 0.53 0.09 99 1015.4
20260903111503 69 94 0.0 2.0 0.01 0.53 0.09 99 1015.5
20260903111359 69 94 0.0 2.0 0.01 0.53 0.09 99 1015.5
20260903111259 69 94 0.0 2.0 0.01 0.53 0.09 99 1015.4
20260903111159 69 94 0.0 2.0 0.01 0.53 0.09 99 1015.3
20260903111059 69 94 0.0 2.0 0.00 0.52 0.08 99 1015.2
20260903111000 69 94 0.0 2.0 0.00 0.52 0.08 99 1015.2
20260903110859 69 94 2.0 2.0 0.00 0.52 0.08 99 1015.2
20260903110758 69 94 0.0 2.0 0.00 0.52 0.08 99 1015.1
20260903110659 69 94 0.0 2.0 0.00 0.52 0.08 99 1015.2
20260903110559 69 94 0.0 2.0 0.00 0.52 0.08 99 1015.2
20260903110500 69 94 1.0 2.0 0.00 0.52 0.08 99 1015.3
20260903110159 69 94 0.0 2.0 0.01 0.52 0.08 99 1015.1
20260903110100 69 94 0.0 2.0 0.01 0.52 0.08 99 1015.0
20260903110004 69 94 1.0 2.0 0.01 0.52 0.08 99 1015.0
20260903105857 69 94 2.0 2.0 0.01 0.52 0.08 99 1014.9
20260903105759 69 94 2.0 2.0 0.01 0.52 0.08 99 1014.8
20260903105658 69 94 0.0 2.0 0.01 0.52 0.08 99 1014.7
20260903105558 69 94 0.0 2.0 0.01 0.52 0.08 99 1014.7
20260903105501 69 94 1.0 2.0 0.01 0.52 0.08 99 1014.7
20260903105358 69 94 0.0 2.0 0.01 0.52 0.08 99 1014.7
20260903105259 69 94 0.0 2.0 0.01 0.52 0.08 99 1014.7
20260903105158 69 94 0.0 2.0 0.01 0.52 0.08 99 1014.7
20260903105058 69 94 1.0 2.0 0.01 0.52 0.08 99 1014.9
20260903105000 69 94 0.0 2.0 0.01 0.52 0.08 99 1015.1
20260903104858 69 94 0.0 2.0 0.01 0.52 0.08 99 1015.2
20260903104758 69 94 0.0 2.0 0.01 0.52 0.08 99 1015.2
20260903104659 69 94 2.0 2.0 0.01 0.52 0.08 99 1015.3
20260903104459 68 94 1.0 2.0 0.01 0.52 0.08 99 1015.2
20260903104358 68 94 0.0 1.0 0.01 0.52 0.08 99 1015.2
20260903104258 68 94 0.0 2.0 0.01 0.52 0.08 99 1015.3
20260903103959 68 94 0.0 2.0 0.01 0.52 0.08 99 1015.4
20260903103858 68 94 0.0 2.0 0.01 0.52 0.08 99 1015.4
20260903103758 68 94 0.0 2.0 0.01 0.52 0.08 99 1015.5
20260903103657 68 94 0.0 2.0 0.01 0.52 0.08 99 1015.5
20260903103558 68 94 0.0 2.0 0.01 0.52 0.08 99 1015.5
20260903103500 68 94 0.0 2.0 0.01 0.52 0.08 99 1015.6
20260903103358 68 94 0.0 4.0 0.01 0.52 0.08 99 1015.6
20260903103258 68 94 2.0 4.0 0.01 0.52 0.08 99 1015.5
20260903103159 68 94 1.0 4.0 0.01 0.52 0.08 99 1015.5
20260903103059 68 94 1.0 4.0 0.01 0.52 0.08 99 1015.4
20260903103000 68 94 1.0 4.0 0.01 0.52 0.08 99 1015.4
20260903102859 68 94 0.0 4.0 0.01 0.52 0.08 99 1015.3
20260903102659 68 94 0.0 4.0 0.01 0.52 0.08 98 1015.0
20260903102458 68 94 1.0 4.0 0.01 0.52 0.08 98 1014.9
20260903102358 68 94 2.0 2.0 0.01 0.52 0.08 98 1015.0
20260903102258 68 94 1.0 2.0 0.01 0.52 0.08 98 1015.0
20260903102157 68 94 1.0 2.0 0.01 0.52 0.08 98 1015.2
20260903102059 68 94 1.0 2.0 0.01 0.52 0.08 98 1015.3
20260903101959 68 94 0.0 2.0 0.01 0.52 0.08 98 1015.4
20260903101858 68 94 1.0 2.0 0.01 0.52 0.08 98 1015.6
20260903101758 68 94 0.0 2.0 0.02 0.52 0.08 98 1015.7
20260903101658 68 94 0.0 2.0 0.02 0.52 0.08 98 1015.8
20260903101558 68 94 1.0 2.0 0.02 0.52 0.08 98 1016.0
20260903101459 68 94 0.0 0.0 0.02 0.52 0.08 98 1016.1
20260903101358 68 94 0.0 0.0 0.02 0.52 0.08 98 1016.1
20260903101259 68 94 0.0 0.0 0.02 0.52 0.08 98 1016.2
20260903101200 68 94 0.0 0.0 0.02 0.52 0.08 98 1016.2
20260903101058 68 94 0.0 0.0 0.02 0.52 0.08 98 1016.3
20260903100959 68 94 0.0 0.0 0.02 0.52 0.08 98 1016.3
20260903100858 69 94 0.0 0.0 0.02 0.52 0.08 98 1016.3
20260903100759 69 94 0.0 0.0 0.02 0.52 0.08 98 1016.4
20260903100558 69 94 0.0 0.0 0.02 0.52 0.08 98 1016.5
20260903100500 69 94 0.0 0.0 0.02 0.52 0.08 98 1016.4
20260903100358 69 94 0.0 0.0 0.02 0.52 0.08 98 1016.5
20260903100257 69 94 0.0 0.0 0.02 0.52 0.08 98 1016.5
20260903100158 69 94 0.0 0.0 0.01 0.51 0.07 98 1016.5
20260903100058 69 94 0.0 0.0 0.01 0.51 0.07 98 1016.8
20260903100002 69 94 0.0 0.0 0.01 0.51 0.07 98 1016.9
20260903095859 69 94 0.0 0.0 0.01 0.51 0.07 98 1017.0
20260903095801 69 94 0.0 0.0 0.01 0.51 0.07 98 1017.1
20260903095700 69 94 0.0 0.0 0.01 0.51 0.07 98 1017.2
20260903095559 69 94 0.0 0.0 0.01 0.51 0.07 98 1017.3
20260903095400 69 94 0.0 0.0 0.01 0.51 0.07 98 1017.3
20260903095258 69 94 0.0 0.0 0.01 0.51 0.07 98 1017.4
20260903095159 69 94 0.0 0.0 0.01 0.51 0.07 98 1017.5
20260903095059 69 94 0.0 0.0 0.01 0.51 0.07 98 1017.5
20260903094759 69 94 0.0 0.0 0.01 0.51 0.07 98 1017.6
20260903094658 69 94 0.0 0.0 0.01 0.51 0.07 98 1017.6
20260903094559 69 94 0.0 0.0 0.01 0.51 0.07 98 1017.6
20260903094501 69 94 0.0 0.0 0.01 0.51 0.07 98 1017.7
20260903094259 69 94 0.0 0.0 0.01 0.51 0.07 98 1017.7
20260903094200 69 94 0.0 0.0 0.01 0.51 0.07 98 1017.7
20260903094059 69 94 0.0 0.0 0.01 0.51 0.07 98 1017.7
20260903093800 69 94 0.0 0.0 0.01 0.51 0.07 98 1017.7
20260903093559 69 94 0.0 0.0 0.01 0.51 0.07 98 1017.6
20260903093503 69 94 0.0 0.0 0.01 0.51 0.07 98 1017.6
20260903093259 69 94 0.0 0.0 0.02 0.51 0.07 98 1017.4
20260903093100 69 94 0.0 0.0 0.02 0.51 0.07 98 1017.3
20260903093001 69 94 0.0 0.0 0.02 0.51 0.07 98 1017.2
20260903092759 69 94 0.0 0.0 0.02 0.51 0.07 98 1016.9
20260903092559 69 94 0.0 0.0 0.02 0.51 0.07 98 1016.8
20260903092503 69 94 0.0 0.0 0.02 0.51 0.07 98 1016.7
20260903092258 69 94 0.0 0.0 0.02 0.51 0.07 98 1016.7
20260903092200 69 94 0.0 0.0 0.02 0.51 0.07 98 1016.7
20260903092100 69 94 0.0 0.0 0.02 0.51 0.07 98 1016.7
20260903092001 69 94 0.0 0.0 0.02 0.51 0.07 98 1016.7
20260903091859 69 94 0.0 0.0 0.02 0.51 0.07 98 1016.7
20260903091759 69 94 0.0 0.0 0.01 0.50 0.06 98 1016.7
20260903091700 69 94 0.0 0.0 0.01 0.50 0.06 98 1016.7
20260903091558 69 94 0.0 0.0 0.02 0.50 0.06 97 1016.7
20260903091502 69 94 0.0 0.0 0.02 0.50 0.06 97 1016.6
20260903091359 69 94 0.0 0.0 0.02 0.50 0.06 97 1016.5
20260903091200 69 94 0.0 0.0 0.02 0.50 0.06 97 1016.4
20260903091059 69 94 0.0 0.0 0.02 0.50 0.06 97 1016.3
20260903091000 69 94 0.0 0.0 0.02 0.50 0.06 97 1016.3
20260903090900 69 94 0.0 0.0 0.02 0.50 0.06 97 1016.4
20260903090800 68 94 0.0 0.0 0.02 0.50 0.06 97 1016.3
20260903090700 69 94 0.0 0.0 0.02 0.50 0.06 97 1016.2
20260903090600 69 94 0.0 0.0 0.02 0.50 0.06 97 1016.1
20260903090500 69 94 0.0 0.0 0.02 0.50 0.06 97 1016.1
20260903090258 69 94 0.0 0.0 0.02 0.50 0.06 97 1016.3
20260903090159 69 94 0.0 0.0 0.02 0.50 0.06 97 1016.3
20260903090058 69 94 0.0 0.0 0.02 0.50 0.06 97 1016.3
20260903085959 69 94 0.0 0.0 0.02 0.51 0.06 97 1016.4
20260903085857 69 94 0.0 0.0 0.02 0.51 0.06 97 1016.5
20260903085758 69 94 0.0 0.0 0.02 0.51 0.06 97 1016.5
20260903085658 69 94 0.0 0.0 0.02 0.51 0.06 97 1016.4
20260903085558 69 94 0.0 0.0 0.02 0.51 0.06 97 1016.3
20260903085458 69 94 0.0 0.0 0.02 0.51 0.06 97 1016.3
20260903085358 69 94 0.0 0.0 0.02 0.51 0.06 97 1016.4
20260903085158 69 94 0.0 0.0 0.02 0.51 0.06 97 1016.7
20260903085059 69 94 0.0 0.0 0.02 0.51 0.06 97 1016.7
20260903084959 69 94 0.0 0.0 0.02 0.51 0.06 97 1016.8
20260903084900 69 94 0.0 0.0 0.03 0.51 0.06 97 1016.8
20260903084757 69 94 0.0 0.0 0.03 0.51 0.06 97 1016.9
20260903084658 69 94 0.0 0.0 0.03 0.51 0.06 97 1017.0
20260903084557 69 94 0.0 0.0 0.03 0.51 0.06 97 1016.9
20260903084359 69 94 0.0 0.0 0.03 0.51 0.06 97 1016.9
20260903084258 69 94 0.0 0.0 0.03 0.51 0.06 97 1017.0
20260903084158 69 94 0.0 0.0 0.03 0.51 0.06 97 1017.0
20260903084059 69 94 0.0 0.0 0.03 0.51 0.06 97 1017.0
20260903083959 69 94 0.0 0.0 0.03 0.51 0.06 97 1016.9
20260903083857 69 94 0.0 0.0 0.03 0.51 0.06 97 1016.9
20260903083758 69 94 0.0 1.0 0.04 0.51 0.06 97 1016.9
20260903083657 69 94 0.0 1.0 0.04 0.51 0.06 97 1016.9
20260903083558 69 94 0.0 1.0 0.04 0.51 0.06 97 1016.8
20260903083459 69 94 0.0 1.0 0.04 0.51 0.06 97 1016.8
20260903083358 69 94 0.0 1.0 0.04 0.51 0.06 97 1016.8
20260903083159 69 94 0.0 1.0 0.03 0.50 0.05 97 1016.7
20260903083059 69 94 0.0 1.0 0.03 0.50 0.05 97 1016.6
20260903082857 69 94 0.0 2.0 0.03 0.50 0.05 97 1016.5
20260903082757 68 94 0.0 2.0 0.03 0.50 0.05 97 1016.5
20260903082658 68 94 0.0 2.0 0.03 0.50 0.05 97 1016.4
20260903082558 68 94 1.0 2.0 0.03 0.50 0.05 97 1016.3
20260903082459 68 94 0.0 2.0 0.03 0.50 0.05 97 1016.3
20260903082358 68 94 1.0 2.0 0.03 0.50 0.05 97 1016.2
20260903082158 68 94 0.0 2.0 0.03 0.50 0.05 97 1016.1
20260903082058 68 94 0.0 2.0 0.03 0.50 0.05 97 1016.1
20260903081959 68 94 0.0 2.0 0.03 0.50 0.05 96 1016.1
20260903081859 68 94 1.0 2.0 0.03 0.50 0.05 96 1016.2
20260903081758 68 94 1.0 2.0 0.03 0.50 0.05 96 1016.2
20260903081659 68 94 2.0 2.0 0.03 0.50 0.05 96 1016.3
20260903081558 68 94 1.0 2.0 0.02 0.49 0.04 96 1016.3
20260903081459 68 94 0.0 3.0 0.02 0.49 0.04 96 1016.3
20260903081358 68 94 1.0 3.0 0.02 0.49 0.04 96 1016.2
20260903081259 68 94 1.0 3.0 0.02 0.49 0.04 96 1016.2
20260903081158 68 94 0.0 3.0 0.02 0.49 0.04 96 1016.2
20260903081058 68 94 1.0 3.0 0.02 0.49 0.04 96 1016.3
20260903080959 69 94 0.0 3.0 0.02 0.49 0.04 96 1016.4
20260903080859 68 94 1.0 3.0 0.02 0.49 0.04 96 1016.5
20260903080757 69 94 2.0 3.0 0.02 0.49 0.04 97 1016.4
20260903080657 68 94 1.0 3.0 0.02 0.49 0.04 97 1016.4
20260903080557 69 94 2.0 3.0 0.02 0.49 0.04 97 1016.4
20260903080459 69 94 1.0 3.0 0.02 0.49 0.04 97 1016.4
20260903080358 69 94 2.0 2.0 0.02 0.49 0.04 97 1016.4
20260903080259 69 94 0.0 0.0 0.03 0.49 0.04 97 1016.3
20260903080158 69 94 0.0 0.0 0.03 0.49 0.04 97 1016.3
20260903080059 69 94 0.0 0.0 0.03 0.49 0.04 97 1016.3
20260903080002 69 94 0.0 2.0 0.03 0.49 0.04 97 1016.4
20260903075859 69 94 0.0 2.0 0.03 0.49 0.04 97 1016.5
20260903075758 69 94 0.0 3.0 0.03 0.49 0.04 97 1016.5
20260903075658 69 94 0.0 3.0 0.03 0.49 0.04 97 1016.5
20260903075559 69 94 0.0 3.0 0.03 0.49 0.04 97 1016.6
20260903075500 69 94 0.0 3.0 0.03 0.49 0.04 97 1016.6
20260903075358 69 94 0.0 3.0 0.03 0.49 0.04 97 1016.6
20260903075300 69 94 0.0 3.0 0.03 0.49 0.04 97 1016.6
20260903075200 69 94 0.0 3.0 0.03 0.49 0.04 97 1016.6
20260903075058 69 94 1.0 3.0 0.03 0.49 0.04 97 1016.8
20260903075002 69 94 0.0 3.0 0.03 0.49 0.04 97 1017.1
20260903074900 69 94 2.0 5.0 0.02 0.48 0.03 97 1017.1
20260903074758 69 94 0.0 6.0 0.02 0.48 0.03 97 1017.1
20260903074659 69 94 1.0 6.0 0.02 0.48 0.03 97 1016.8
20260903074559 69 94 1.0 6.0 0.02 0.48 0.03 97 1016.6
20260903074459 69 94 2.0 6.0 0.02 0.48 0.03 97 1016.5
20260903074300 69 173 1.0 6.0 0.02 0.48 0.03 97 1016.2
20260903074200 69 174 2.0 6.0 0.02 0.48 0.03 97 1016.1
20260903074059 69 180 1.0 6.0 0.02 0.48 0.03 97 1015.9
20260903074001 69 159 4.0 6.0 0.02 0.48 0.03 97 1015.9
20260903073700 69 128 2.0 5.0 0.01 0.47 0.02 97 1015.9
20260903073500 69 123 0.0 4.0 0.01 0.47 0.02 97 1016.0
20260903073359 69 65 4.0 4.0 0.01 0.47 0.02 97 1016.2
20260903073159 69 138 2.0 3.0 0.01 0.47 0.02 97 1016.4
20260903073100 69 140 1.0 3.0 0.01 0.47 0.02 97 1016.4
20260903073000 69 157 0.0 3.0 0.01 0.47 0.02 97 1016.4
20260903072859 69 157 0.0 3.0 0.01 0.47 0.02 97 1016.2
20260903072758 69 157 0.0 3.0 0.01 0.47 0.02 97 1016.2
20260903072659 69 157 1.0 3.0 0.01 0.47 0.02 97 1016.1
20260903072600 69 157 1.0 3.0 0.01 0.47 0.02 97 1016.1
20260903072503 69 166 3.0 3.0 0.01 0.47 0.02 97 1016.1
20260903072300 69 167 1.0 3.0 0.01 0.47 0.02 97 1016.3
20260903072159 69 167 0.0 3.0 0.01 0.47 0.02 97 1016.3
20260903072100 69 167 0.0 3.0 0.01 0.47 0.02 97 1016.3
20260903072000 69 167 1.0 3.0 0.01 0.47 0.02 97 1016.3
20260903071859 69 167 3.0 3.0 0.01 0.47 0.02 97 1016.1
20260903071700 69 166 3.0 4.0 0.01 0.47 0.02 98 1015.9
20260903071559 69 95 2.0 3.0 0.01 0.47 0.02 98 1015.8
20260903071258 69 120 0.0 5.0 0.01 0.47 0.02 98 1015.7
20260903071158 70 92 1.0 9.0 0.01 0.47 0.02 98 1015.8
20260903071100 70 91 0.0 9.0 0.01 0.47 0.02 98 1015.9
20260903070900 70 63 1.0 9.0 0.01 0.47 0.02 98 1016.0
20260903070759 70 63 0.0 9.0 0.01 0.47 0.02 98 1016.0
20260903070658 70 63 1.0 9.0 0.01 0.47 0.02 98 1015.9
20260903070558 70 65 0.0 9.0 0.01 0.47 0.02 98 1015.9
20260903070501 70 20 3.0 9.0 0.01 0.47 0.02 98 1015.9
20260903070359 70 71 1.0 9.0 0.01 0.47 0.02 98 1015.9
20260903070300 70 73 3.0 9.0 0.00 0.46 0.01 98 1016.0
20260903070158 70 139 4.0 10.0 0.00 0.46 0.01 98 1016.0
20260903070059 70 5 3.0 13.0 0.00 0.46 0.01 98 1016.1
20260903070000 70 5 3.0 13.0 0.00 0.46 0.01 98 1016.1
20260903065857 70 54 3.0 13.0 0.00 0.46 0.01 97 1016.2
20260903065758 70 22 5.0 13.0 0.00 0.46 0.01 97 1016.2
20260903065658 70 26 3.0 13.0 0.00 0.46 0.01 97 1016.2
20260903065559 70 63 1.0 13.0 0.00 0.46 0.01 97 1016.2
20260903065500 70 32 2.0 13.0 0.00 0.46 0.01 97 1016.2
20260903065400 70 30 4.0 14.0 0.00 0.46 0.01 97 1016.2
20260903065259 70 19 3.0 15.0 0.00 0.46 0.01 97 1016.4
20260903065158 70 62 3.0 15.0 0.00 0.46 0.01 97 1016.6
20260903065058 69 11 7.0 15.0 0.00 0.46 0.01 97 1016.7
20260903064959 69 13 5.0 15.0 0.00 0.46 0.01 97 1016.7
20260903064858 69 44 4.0 15.0 0.00 0.46 0.01 97 1016.7
20260903064758 69 57 11.0 15.0 0.00 0.46 0.01 97 1016.6
20260903064557 69 5 6.0 15.0 0.00 0.46 0.01 97 1016.6
20260903064459 69 49 6.0 15.0 0.00 0.46 0.01 97 1016.6
20260903064359 69 107 13.0 15.0 0.00 0.46 0.01 97 1016.8
20260903064257 69 18 9.0 13.0 0.00 0.46 0.01 97 1016.9
20260903064158 69 26 4.0 5.0 0.00 0.46 0.01 97 1016.8
20260903064057 69 330 3.0 4.0 0.00 0.46 0.01 97 1016.6
20260903064000 69 83 2.0 3.0 0.00 0.46 0.01 97 1016.3
20260903063858 69 113 0.0 2.0 0.00 0.46 0.01 97 1016.0
20260903063557 68 114 0.0 2.0 0.00 0.46 0.01 96 1015.4
20260903063459 68 114 0.0 2.0 0.00 0.46 0.01 96 1015.2
20260903063359 68 114 2.0 2.0 0.00 0.46 0.01 96 1015.0
20260903063257 68 114 2.0 2.0 0.00 0.46 0.01 96 1015.1
20260903063158 68 114 0.0 2.0 0.00 0.46 0.01 96 1015.0
20260903063058 68 114 1.0 2.0 0.00 0.46 0.01 96 1015.1
20260903062959 68 111 0.0 2.0 0.00 0.46 0.01 96 1015.1
20260903062858 68 111 0.0 2.0 0.00 0.46 0.01 96 1015.2
20260903062758 68 111 0.0 2.0 0.00 0.46 0.01 96 1015.2
20260903062657 68 111 0.0 2.0 0.00 0.46 0.01 96 1015.2
20260903062459 68 111 1.0 3.0 0.00 0.46 0.01 97 1015.1
20260903062357 68 111 1.0 3.0 0.00 0.46 0.01 97 1015.1
20260903062258 68 111 1.0 3.0 0.00 0.46 0.01 97 1015.0
20260903062158 68 111 0.0 3.0 0.00 0.46 0.01 97 1015.1
20260903062058 68 111 1.0 3.0 0.00 0.46 0.01 97 1015.1
20260903061959 68 111 1.0 3.0 0.00 0.46 0.01 97 1015.1
20260903061859 68 111 1.0 3.0 0.00 0.46 0.01 97 1015.0
20260903061658 68 111 1.0 3.0 0.00 0.46 0.01 97 1014.9
20260903061558 68 111 1.0 3.0 0.00 0.46 0.01 97 1014.9
20260903061357 68 136 1.0 3.0 0.00 0.46 0.01 97 1014.9
20260903061258 68 108 1.0 4.0 0.00 0.46 0.01 97 1015.0
20260903061158 68 108 2.0 4.0 0.00 0.46 0.01 97 1015.1
20260903061058 68 69 0.0 4.0 0.00 0.46 0.01 97 1015.1
20260903060958 68 175 0.0 4.0 0.00 0.46 0.01 97 1015.2
20260903060859 68 175 0.0 4.0 0.00 0.46 0.01 97 1015.2
20260903060758 68 176 0.0 4.0 0.00 0.46 0.01 97 1015.2
20260903060658 68 176 0.0 4.0 0.00 0.46 0.01 97 1015.0
20260903060558 68 176 0.0 5.0 0.00 0.46 0.01 97 1014.9
20260903060500 68 177 3.0 5.0 0.00 0.46 0.01 97 1014.9
20260903060358 68 75 1.0 5.0 0.00 0.46 0.01 97 1014.9
20260903060259 68 68 3.0 5.0 0.00 0.46 0.01 97 1015.0
20260903060159 69 91 3.0 5.0 0.00 0.46 0.01 97 1015.1
20260903060059 68 146 0.0 5.0 0.00 0.46 0.01 97 1015.2
20260903060002 68 151 0.0 5.0 0.00 0.46 0.01 97 1015.3
20260903055859 69 151 1.0 5.0 0.00 0.46 0.01 97 1015.4
20260903055800 69 69 3.0 5.0 0.00 0.46 0.01 97 1015.5
20260903055658 69 69 5.0 5.0 0.01 0.46 0.01 97 1015.5
20260903055600 69 138 1.0 4.0 0.01 0.46 0.01 97 1015.5
20260903055503 69 138 1.0 4.0 0.01 0.46 0.01 97 1015.4
20260903055400 69 138 1.0 4.0 0.01 0.46 0.01 97 1015.4
20260903055158 69 121 2.0 3.0 0.01 0.46 0.01 97 1015.5
20260903055059 69 90 0.0 3.0 0.01 0.46 0.01 97 1015.5
20260903054959 69 90 0.0 3.0 0.01 0.46 0.01 97 1015.6
20260903054758 69 80 0.0 3.0 0.01 0.46 0.01 97 1015.8
20260903054659 69 80 0.0 3.0 0.01 0.46 0.01 97 1016.0
20260903054559 69 80 0.0 5.0 0.01 0.46 0.01 97 1016.0
20260903054358 69 80 2.0 5.0 0.01 0.46 0.01 97 1016.0
20260903054201 69 70 3.0 5.0 0.01 0.46 0.01 97 1016.0
20260903054059 69 70 2.0 5.0 0.01 0.46 0.01 97 1016.0
20260903054002 69 70 0.0 5.0 0.01 0.46 0.01 97 1016.1
20260903053859 69 70 0.0 5.0 0.01 0.46 0.01 97 1016.1
20260903053800 69 70 3.0 5.0 0.01 0.46 0.01 97 1016.0
20260903053501 69 105 0.0 3.0 0.01 0.46 0.01 97 1015.9
20260903053359 69 105 0.0 3.0 0.01 0.46 0.01 97 1016.0
20260903053258 69 105 2.0 3.0 0.01 0.46 0.01 97 1015.9
20260903052858 69 107 1.0 3.0 0.01 0.46 0.01 97 1015.8
20260903052759 69 107 1.0 6.0 0.01 0.46 0.01 97 1015.7
20260903052658 69 107 1.0 6.0 0.01 0.46 0.01 97 1015.6
20260903052559 69 107 0.0 6.0 0.01 0.46 0.01 97 1015.6
20260903052502 69 118 1.0 6.0 0.01 0.46 0.01 97 1015.7
20260903052300 69 101 0.0 6.0 0.01 0.46 0.01 97 1015.8
20260903052159 69 101 0.0 6.0 0.01 0.46 0.01 97 1015.7
20260903052059 69 101 2.0 6.0 0.01 0.46 0.01 97 1015.7
20260903052000 69 96 1.0 6.0 0.01 0.46 0.01 97 1015.8
20260903051859 69 70 5.0 5.0 0.01 0.46 0.01 97 1015.8
20260903051759 69 157 0.0 4.0 0.01 0.46 0.01 97 1015.7
20260903051700 69 140 1.0 6.0 0.01 0.46 0.01 97 1015.7
20260903051459 69 72 0.0 8.0 0.01 0.46 0.01 98 1015.8
20260903051400 69 72 2.0 8.0 0.01 0.46 0.01 98 1015.8
20260903051259 69 72 3.0 8.0 0.01 0.46 0.01 98 1015.8
20260903051058 69 93 1.0 8.0 0.01 0.46 0.01 98 1015.8
20260903051000 69 58 3.0 8.0 0.01 0.46 0.01 98 1015.8
20260903050859 69 351 2.0 8.0 0.01 0.46 0.01 98 1015.9
20260903050700 70 59 1.0 6.0 0.01 0.46 0.01 98 1015.9
20260903050459 70 129 1.0 6.0 0.01 0.46 0.01 98 1016.0
20260903050400 70 78 2.0 6.0 0.01 0.46 0.01 98 1016.1
20260903050259 70 130 1.0 6.0 0.01 0.46 0.01 98 1016.1
20260903050159 70 134 1.0 6.0 0.01 0.46 0.01 98 1016.1
20260903050100 70 84 4.0 6.0 0.01 0.46 0.01 98 1016.1
20260903050002 70 69 2.0 6.0 0.01 0.46 0.01 98 1016.0
20260903045757 70 49 2.0 5.0 0.01 0.46 0.01 98 1016.0
20260903045558 70 76 2.0 4.0 0.00 0.45 0.00 98 1016.0
20260903045500 70 56 1.0 4.0 0.00 0.45 0.00 98 1016.0
20260903045357 70 56 0.0 5.0 0.00 0.45 0.00 98 1016.0
20260903045258 70 86 1.0 5.0 0.00 0.45 0.00 98 1016.1
20260903044859 70 86 2.0 5.0 0.00 0.45 0.00 97 1016.3
20260903044758 70 84 4.0 5.0 0.00 0.45 0.00 97 1016.4
20260903044659 70 109 2.0 5.0 0.00 0.45 0.00 97 1016.4
20260903044459 71 180 3.0 5.0 0.00 0.45 0.00 97 1016.4
20260903044359 71 188 2.0 4.0 0.00 0.45 0.00 97 1016.5
20260903044258 71 191 3.0 6.0 0.00 0.45 0.00 97 1016.5
20260903044159 71 153 3.0 6.0 0.00 0.45 0.00 97 1016.5
20260903044058 71 150 2.0 6.0 0.00 0.45 0.00 97 1016.6
20260903044000 71 144 0.0 10.0 0.00 0.45 0.00 97 1016.5
20260903043859 71 144 2.0 10.0 0.00 0.45 0.00 96 1016.5
20260903043757 71 143 2.0 10.0 0.00 0.45 0.00 96 1016.5
20260903043559 71 61 1.0 10.0 0.00 0.45 0.00 96 1016.6
20260903043459 71 59 1.0 10.0 0.00 0.45 0.00 96 1016.5
20260903043358 71 107 1.0 10.0 0.00 0.45 0.00 96 1016.6
20260903043200 72 349 1.0 10.0 0.00 0.45 0.00 96 1016.6
20260903043057 72 55 5.0 10.0 0.00 0.45 0.00 96 1016.6
20260903043000 72 79 1.0 9.0 0.00 0.45 0.00 95 1016.6
20260903042758 72 57 2.0 15.0 0.00 0.45 0.00 96 1016.7
20260903042659 72 66 3.0 15.0 0.00 0.45 0.00 96 1016.8
20260903042458 72 22 2.0 15.0 0.00 0.45 0.00 96 1017.2
20260903042358 72 48 2.0 15.0 0.00 0.45 0.00 96 1017.4
20260903042258 72 39 9.0 15.0 0.00 0.45 0.00 96 1017.5
20260903042158 73 26 6.0 15.0 0.00 0.45 0.00 96 1017.5
20260903042058 73 9 5.0 15.0 0.00 0.45 0.00 96 1017.5
20260903041959 73 27 5.0 15.0 0.00 0.45 0.00 96 1017.4
20260903041858 73 67 12.0 14.0 0.00 0.45 0.00 96 1017.4
20260903041757 73 73 5.0 14.0 0.00 0.45 0.00 97 1017.4
20260903041658 73 26 3.0 14.0 0.00 0.45 0.00 97 1017.4
20260903041558 72 49 6.0 14.0 0.00 0.45 0.00 98 1017.5
20260903041358 72 9 8.0 14.0 0.00 0.45 0.00 98 1017.3
20260903041259 72 306 4.0 14.0 0.00 0.45 0.00 97 1017.2
20260903041158 72 344 5.0 14.0 0.00 0.45 0.00 97 1017.1
20260903041058 72 5 11.0 14.0 0.00 0.45 0.00 97 1017.0
20260903040959 72 11 9.0 14.0 0.00 0.45 0.00 97 1017.1
20260903040858 72 12 7.0 13.0 0.00 0.45 0.00 97 1017.1
20260903040758 72 5 4.0 13.0 0.00 0.45 0.00 97 1017.1
20260903040559 72 32 4.0 10.0 0.00 0.45 0.00 97 1016.9
20260903040500 72 11 4.0 10.0 0.00 0.45 0.00 97 1016.7
20260903040358 72 22 8.0 8.0 0.00 0.45 0.00 96 1016.3
20260903040259 72 65 0.0 0.0 0.00 0.45 0.00 96 1016.0
20260903040200 72 65 0.0 0.0 0.00 0.45 0.00 96 1015.8
20260903035900 72 65 0.0 1.0 0.00 0.58 0.45 96 1015.6
20260903035800 72 65 0.0 1.0 0.00 0.58 0.45 96 1015.6
20260903035703 72 65 0.0 2.0 0.00 0.58 0.45 96 1015.6
20260903035502 72 65 0.0 2.0 0.00 0.58 0.45 96 1015.7
20260903035401 72 65 0.0 2.0 0.00 0.58 0.45 96 1015.6
20260903035259 72 65 0.0 2.0 0.00 0.58 0.45 96 1015.7
20260903035200 72 65 0.0 2.0 0.00 0.58 0.45 96 1015.6
20260903035100 72 65 0.0 2.0 0.00 0.58 0.45 96 1015.6
20260903035003 72 65 0.0 2.0 0.00 0.58 0.45 96 1015.6
20260903034900 72 65 1.0 2.0 0.00 0.58 0.45 96 1015.5
20260903034801 72 65 0.0 2.0 0.00 0.58 0.45 96 1015.5
20260903034600 72 65 0.0 4.0 0.00 0.58 0.45 96 1015.5
20260903034503 72 65 0.0 4.0 0.00 0.58 0.45 96 1015.6
20260903034300 72 65 0.0 4.0 0.00 0.58 0.45 96 1015.7
20260903034100 72 65 1.0 4.0 0.00 0.58 0.45 96 1015.6
20260903034003 72 65 0.0 4.0 0.00 0.58 0.45 96 1015.7
20260903033900 72 65 0.0 4.0 0.00 0.58 0.45 96 1015.7
20260903033800 72 65 1.0 4.0 0.00 0.58 0.45 96 1015.8
20260903033600 72 82 2.0 2.0 0.00 0.58 0.45 96 1015.7
20260903033503 72 82 1.0 2.0 0.00 0.58 0.45 96 1015.6
20260903033400 72 82 1.0 2.0 0.00 0.58 0.45 96 1015.6
20260903033301 72 82 1.0 2.0 0.00 0.58 0.45 96 1015.6
20260903033202 72 82 1.0 2.0 0.00 0.58 0.45 96 1015.6
20260903033101 72 82 1.0 2.0 0.00 0.58 0.45 96 1015.7
20260903033004 72 82 0.0 2.0 0.00 0.58 0.45 96 1015.8
20260903032801 72 82 1.0 2.0 0.00 0.58 0.45 96 1015.9
20260903032600 72 82 0.0 2.0 0.00 0.58 0.45 96 1016.0
20260903032503 72 82 1.0 2.0 0.00 0.58 0.45 96 1016.0
20260903032201 72 82 1.0 2.0 0.00 0.58 0.45 96 1016.0
20260903032100 72 82 1.0 3.0 0.00 0.58 0.45 96 1016.0
20260903032003 72 82 1.0 3.0 0.00 0.58 0.45 96 1016.0
20260903031900 72 82 1.0 3.0 0.00 0.58 0.45 96 1016.1
20260903031801 72 82 0.0 3.0 0.00 0.58 0.45 96 1016.3
20260903031700 72 82 1.0 3.0 0.00 0.58 0.45 96 1016.3
20260903031504 72 92 0.0 3.0 0.00 0.58 0.45 96 1016.4
20260903031401 72 92 1.0 3.0 0.00 0.58 0.45 96 1016.3
20260903031300 72 92 0.0 3.0 0.00 0.58 0.45 96 1016.2
20260903031200 72 92 1.0 3.0 0.00 0.58 0.45 97 1016.2
20260903031004 72 90 0.0 2.0 0.00 0.58 0.45 97 1016.0
20260903030901 72 90 0.0 2.0 0.00 0.58 0.45 97 1016.0
20260903030800 72 90 0.0 2.0 0.00 0.58 0.45 97 1016.0
20260903030601 72 90 0.0 2.0 0.00 0.58 0.45 97 1016.0
20260903030503 72 88 0.0 0.0 0.00 0.58 0.45 97 1016.0
20260903030359 72 88 0.0 0.0 0.00 0.58 0.45 97 1016.0
20260903030300 72 88 0.0 0.0 0.00 0.58 0.45 97 1016.1
20260903030201 72 88 0.0 0.0 0.00 0.58 0.45 97 1016.1
20260903030101 72 88 0.0 0.0 0.00 0.58 0.45 97 1016.2
20260903025859 72 88 0.0 0.0 0.00 0.69 0.45 97 1016.2
20260903025800 72 88 0.0 2.0 0.00 0.69 0.45 97 1016.2
20260903025700 72 88 0.0 2.0 0.00 0.69 0.45 97 1016.2
20260903025600 72 88 0.0 2.0 0.00 0.69 0.45 97 1016.2
20260903025502 72 88 0.0 2.0 0.00 0.69 0.45 97 1016.1
20260903025400 72 88 0.0 2.0 0.00 0.69 0.45 97 1016.2
20260903025259 72 88 0.0 2.0 0.00 0.69 0.45 97 1016.2
20260903025159 72 88 0.0 2.0 0.00 0.69 0.45 97 1016.2
20260903025059 72 88 0.0 2.0 0.00 0.69 0.45 97 1016.2
20260903024900 72 88 1.0 2.0 0.00 0.69 0.45 97 1016.4
20260903024759 72 88 0.0 2.0 0.00 0.69 0.45 97 1016.4
20260903024700 72 88 0.0 2.0 0.00 0.69 0.45 97 1016.4
20260903024358 72 88 1.0 2.0 0.00 0.69 0.45 97 1016.3
20260903024159 72 88 1.0 2.0 0.00 0.69 0.45 97 1016.3
20260903024059 72 88 0.0 2.0 0.00 0.69 0.45 97 1016.2
20260903024003 72 88 0.0 2.0 0.00 0.69 0.45 97 1016.2
20260903023659 72 88 0.0 2.0 0.00 0.69 0.45 97 1016.1
20260903023559 72 88 1.0 2.0 0.00 0.69 0.45 97 1016.1
20260903023400 72 121 0.0 3.0 0.00 0.69 0.45 97 1016.1
20260903023259 72 121 0.0 3.0 0.00 0.69 0.45 97 1016.0
20260903023159 72 121 0.0 3.0 0.00 0.69 0.45 97 1015.9
20260903023100 72 121 1.0 3.0 0.00 0.69 0.45 97 1015.9
20260903023003 72 121 0.0 3.0 0.00 0.69 0.45 97 1015.9
20260903022859 72 121 0.0 3.0 0.00 0.69 0.45 97 1015.9
20260903022759 72 121 1.0 3.0 0.00 0.69 0.45 97 1015.9
20260903022658 72 121 1.0 3.0 0.00 0.69 0.45 97 1015.9
20260903022359 72 103 0.0 3.0 0.00 0.69 0.45 97 1016.0
20260903022259 72 103 0.0 3.0 0.00 0.69 0.45 97 1015.9
20260903022100 72 103 0.0 3.0 0.00 0.69 0.45 97 1015.9
20260903022002 72 103 1.0 3.0 0.00 0.69 0.45 97 1016.0
20260903021859 72 103 0.0 3.0 0.00 0.69 0.45 97 1016.0
20260903021759 72 103 1.0 3.0 0.00 0.69 0.45 97 1016.0
20260903021659 72 122 0.0 0.0 0.00 0.69 0.45 97 1016.0
20260903021600 72 122 0.0 0.0 0.00 0.69 0.45 97 1016.0
20260903021503 72 122 0.0 0.0 0.00 0.69 0.45 97 1016.0
20260903021400 72 122 0.0 0.0 0.00 0.69 0.45 97 1015.8
20260903021259 72 122 0.0 0.0 0.00 0.69 0.45 97 1015.8
20260903021200 72 122 0.0 0.0 0.00 0.69 0.45 97 1015.7
20260903020800 73 122 0.0 0.0 0.00 0.69 0.45 97 1015.6
20260903020700 73 122 0.0 0.0 0.00 0.69 0.45 97 1015.6
20260903020600 73 122 0.0 0.0 0.00 0.69 0.45 97 1015.6
20260903020400 73 122 0.0 0.0 0.00 0.69 0.45 97 1015.6
20260903020259 73 122 0.0 0.0 0.00 0.69 0.45 97 1015.6
20260903020200 73 122 0.0 0.0 0.00 0.69 0.45 97 1015.6
20260903020101 73 122 0.0 0.0 0.00 0.69 0.45 97 1015.5
20260903015901 73 122 0.0 0.0 0.00 0.82 0.45 97 1015.6
20260903015800 73 122 0.0 0.0 0.00 0.82 0.45 97 1015.6
20260903015702 73 122 0.0 0.0 0.00 0.82 0.45 97 1015.6
20260903015600 73 122 0.0 0.0 0.01 0.82 0.45 97 1015.6
20260903015502 73 122 0.0 0.0 0.01 0.82 0.45 97 1015.5
20260903015401 73 122 0.0 0.0 0.01 0.82 0.45 97 1015.5
20260903015200 73 122 0.0 1.0 0.01 0.82 0.45 97 1015.6
20260903015100 73 122 0.0 3.0 0.01 0.82 0.45 97 1015.6
20260903015002 73 122 0.0 3.0 0.01 0.82 0.45 97 1015.6
20260903014902 73 122 0.0 3.0 0.01 0.82 0.45 97 1015.6
20260903014801 73 122 0.0 3.0 0.01 0.82 0.45 97 1015.6
20260903014700 73 122 0.0 3.0 0.01 0.82 0.45 97 1015.6
20260903014601 73 122 0.0 3.0 0.01 0.82 0.45 97 1015.6
20260903014503 73 122 0.0 3.0 0.01 0.82 0.45 97 1015.5
20260903014400 73 122 0.0 3.0 0.01 0.82 0.45 97 1015.4
20260903014301 73 122 0.0 3.0 0.01 0.82 0.45 97 1015.4
20260903014201 73 122 2.0 3.0 0.01 0.82 0.45 97 1015.5
20260903014101 73 132 0.0 2.0 0.01 0.82 0.45 97 1015.5
20260903013700 73 132 1.0 2.0 0.01 0.82 0.45 97 1015.7
20260903013600 73 132 0.0 2.0 0.01 0.82 0.45 97 1015.7
20260903013504 73 132 0.0 2.0 0.01 0.82 0.45 97 1015.7
20260903013302 73 132 0.0 2.0 0.01 0.82 0.45 97 1015.6
20260903013201 73 132 0.0 2.0 0.01 0.82 0.45 97 1015.7
20260903013100 73 132 0.0 2.0 0.01 0.82 0.45 97 1015.7
20260903012800 73 94 0.0 2.0 0.01 0.82 0.45 97 1015.7
20260903012700 73 94 1.0 2.0 0.01 0.82 0.45 97 1015.7
20260903012602 73 94 0.0 2.0 0.01 0.82 0.45 97 1015.7
20260903012503 73 94 0.0 0.0 0.01 0.82 0.45 97 1015.8
20260903012402 73 94 0.0 0.0 0.01 0.82 0.45 97 1015.9
20260903012301 73 94 0.0 0.0 0.01 0.82 0.45 97 1015.9
20260903012203 73 94 0.0 0.0 0.01 0.82 0.45 97 1015.9
20260903012100 73 94 0.0 0.0 0.01 0.82 0.45 97 1015.9
20260903011902 73 94 0.0 0.0 0.01 0.82 0.45 97 1015.8
20260903011800 73 94 0.0 0.0 0.01 0.82 0.45 97 1015.7
20260903011700 73 94 0.0 0.0 0.01 0.82 0.45 97 1015.7
20260903011601 73 94 0.0 0.0 0.01 0.82 0.45 97 1015.6
20260903011503 73 94 0.0 0.0 0.01 0.82 0.45 97 1015.6
20260903011400 73 94 0.0 0.0 0.01 0.82 0.45 97 1015.6
20260903011300 73 94 0.0 0.0 0.01 0.82 0.45 97 1015.6
20260903011201 73 94 0.0 0.0 0.01 0.82 0.45 97 1015.6
20260903011103 73 94 0.0 0.0 0.01 0.82 0.45 97 1015.8
20260903011002 73 94 0.0 0.0 0.01 0.82 0.45 97 1015.9
20260903010900 73 94 0.0 0.0 0.01 0.82 0.45 97 1015.9
20260903010801 73 94 0.0 0.0 0.01 0.82 0.45 97 1015.9
20260903010600 73 94 0.0 0.0 0.01 0.82 0.45 97 1016.0
20260903010401 73 94 0.0 0.0 0.01 0.82 0.45 97 1015.9
20260903010301 73 94 0.0 0.0 0.01 0.82 0.45 98 1015.9
20260903010100 73 94 0.0 0.0 0.01 0.82 0.45 98 1015.9
20260903010003 73 94 0.0 0.0 0.01 0.82 0.45 98 1015.9
20260903005900 73 94 0.0 0.0 0.01 0.82 0.45 98 1015.9
20260903005800 73 94 0.0 0.0 0.01 0.82 0.45 98 1015.9
20260903005659 73 94 0.0 0.0 0.00 0.81 0.44 98 1015.9
20260903005600 73 94 0.0 0.0 0.00 0.81 0.44 98 1015.9
20260903005503 73 94 0.0 0.0 0.00 0.81 0.44 98 1015.9
20260903005400 73 94 0.0 0.0 0.00 0.81 0.44 98 1015.9
20260903005259 73 94 0.0 0.0 0.00 0.81 0.44 98 1015.9
20260903005159 73 94 0.0 0.0 0.00 0.81 0.44 98 1015.9
20260903005100 73 94 0.0 0.0 0.00 0.81 0.44 98 1015.9
20260903005003 73 94 0.0 0.0 0.00 0.81 0.44 98 1015.9
20260903004859 73 94 0.0 0.0 0.00 0.81 0.44 98 1016.0
20260903004659 73 94 0.0 0.0 0.00 0.81 0.44 98 1016.0
20260903004559 73 94 0.0 0.0 0.00 0.81 0.44 98 1016.0
20260903004503 73 94 0.0 0.0 0.00 0.81 0.44 98 1016.0
20260903004359 73 94 0.0 0.0 0.00 0.81 0.44 98 1015.9
20260903004200 73 94 0.0 0.0 0.00 0.81 0.44 98 1015.9
20260903004058 73 94 0.0 1.0 0.00 0.81 0.44 98 1015.8
20260903004003 73 94 0.0 1.0 0.00 0.81 0.44 98 1015.9
20260903003859 73 94 0.0 1.0 0.00 0.81 0.44 98 1015.9
20260903003800 73 94 0.0 1.0 0.00 0.81 0.44 98 1015.8
20260903003658 73 94 0.0 1.0 0.00 0.81 0.44 98 1015.8
20260903003559 73 94 0.0 1.0 0.00 0.81 0.44 98 1015.8
20260903003502 73 94 0.0 2.0 0.01 0.81 0.44 98 1015.8
20260903003259 73 94 0.0 2.0 0.01 0.81 0.44 98 1015.7
20260903003200 73 94 0.0 2.0 0.01 0.81 0.44 98 1015.7
20260903003100 74 94 1.0 2.0 0.01 0.81 0.44 97 1015.7
20260903003002 74 94 1.0 2.0 0.01 0.81 0.44 97 1015.7
20260903002900 74 94 0.0 2.0 0.01 0.81 0.44 97 1015.7
20260903002759 74 94 0.0 2.0 0.01 0.81 0.44 97 1015.6
20260903002701 74 94 0.0 2.0 0.01 0.81 0.44 97 1015.6
20260903002600 74 94 1.0 2.0 0.01 0.81 0.44 97 1015.5
20260903002301 74 94 0.0 2.0 0.01 0.81 0.44 97 1015.5
20260903002102 74 94 0.0 2.0 0.01 0.81 0.44 97 1015.7
20260903002002 74 94 0.0 2.0 0.01 0.81 0.44 97 1015.8
20260903001759 74 94 0.0 2.0 0.01 0.81 0.44 97 1015.9
20260903001658 74 94 0.0 1.0 0.01 0.81 0.44 97 1015.9
20260903001502 74 94 0.0 0.0 0.01 0.81 0.44 97 1015.9
20260903001400 74 94 0.0 0.0 0.01 0.81 0.44 97 1015.9
20260903001300 74 94 0.0 0.0 0.01 0.81 0.44 97 1015.9
20260903001159 74 94 0.0 0.0 0.01 0.81 0.44 97 1015.9
20260903001059 74 94 0.0 0.0 0.01 0.81 0.44 97 1015.8
20260903001003 74 94 0.0 0.0 0.01 0.81 0.44 97 1015.9
20260903000759 74 94 0.0 2.0 0.01 0.81 0.44 97 1015.8
20260903000700 74 94 0.0 2.0 0.01 0.81 0.44 97 1015.8
20260903000359 74 94 0.0 2.0 0.01 0.81 0.44 97 1015.9
20260903000259 74 94 0.0 2.0 0.01 0.81 0.44 97 1015.9
20260903000200 74 94 0.0 2.0 0.01 0.81 0.44 97 1015.8
20260903000059 74 94 0.0 2.0 0.01 0.81 0.44 97 1015.9
20260903000003 74 94 0.0 4.0 0.01 0.81 0.44 97 1015.8
20260902235859 74 94 1.0 4.0 0.01 0.81 0.44 97 1015.8
20260902235759 74 94 0.0 4.0 0.01 0.81 0.44 97 1015.8
20260902235559 74 94 0.0 4.0 0.01 0.81 0.44 97 1015.8
20260902235502 74 94 0.0 4.0 0.01 0.81 0.44 97 1015.8
20260902235400 74 94 0.0 4.0 0.01 0.81 0.44 97 1015.8
20260902235259 74 94 0.0 4.0 0.01 0.81 0.44 97 1015.8
20260902235200 74 94 0.0 4.0 0.01 0.81 0.44 97 1015.8
20260902235100 74 94 4.0 4.0 0.01 0.81 0.44 97 1015.8
20260902235004 74 106 0.0 3.0 0.01 0.81 0.44 97 1015.8
20260902234900 74 106 0.0 3.0 0.01 0.81 0.44 97 1015.8
20260902234800 74 106 0.0 3.0 0.01 0.81 0.44 97 1015.7
20260902234659 74 106 0.0 3.0 0.01 0.81 0.44 97 1015.7
20260902234559 74 106 0.0 3.0 0.01 0.81 0.44 97 1015.8
20260902234501 74 106 0.0 5.0 0.01 0.81 0.44 97 1015.8
20260902234359 74 107 1.0 5.0 0.01 0.81 0.44 97 1015.8
20260902234259 74 107 0.0 5.0 0.01 0.81 0.44 97 1015.9
20260902234100 74 171 0.0 5.0 0.01 0.81 0.44 97 1015.8
20260902234002 74 171 0.0 5.0 0.01 0.81 0.44 97 1015.9
20260902233859 74 171 1.0 5.0 0.01 0.81 0.44 97 1015.9
20260902233659 74 172 1.0 5.0 0.01 0.81 0.44 97 1015.8
20260902233558 74 172 3.0 5.0 0.01 0.81 0.44 97 1015.8
20260902233502 74 173 0.0 3.0 0.00 0.80 0.43 97 1015.7
20260902233359 74 173 0.0 3.0 0.00 0.80 0.43 97 1015.7
20260902233259 74 173 0.0 3.0 0.00 0.80 0.43 97 1015.7
20260902233159 74 173 0.0 3.0 0.00 0.80 0.43 97 1015.7
20260902233059 74 173 3.0 3.0 0.00 0.80 0.43 97 1015.8
20260902233001 74 173 0.0 0.0 0.00 0.80 0.43 97 1015.8
20260902232859 74 173 0.0 0.0 0.00 0.80 0.43 97 1015.8
20260902232800 74 173 0.0 0.0 0.00 0.80 0.43 97 1015.8
20260902232701 74 172 0.0 0.0 0.00 0.80 0.43 97 1015.8
20260902232502 74 172 0.0 0.0 0.00 0.80 0.43 97 1015.7
20260902232300 74 172 0.0 0.0 0.00 0.80 0.43 97 1015.7
20260902232003 74 172 0.0 0.0 0.00 0.80 0.43 97 1015.7
20260902231900 74 172 0.0 0.0 0.00 0.80 0.43 97 1015.7
20260902231758 74 172 0.0 0.0 0.00 0.80 0.43 97 1015.7
20260902231659 74 173 0.0 0.0 0.00 0.80 0.43 97 1015.6
20260902231600 74 172 0.0 0.0 0.00 0.80 0.43 97 1015.7
20260902231502 74 173 0.0 0.0 0.00 0.80 0.43 97 1015.7
20260902231359 74 173 0.0 0.0 0.00 0.80 0.43 97 1015.6
20260902231259 75 173 0.0 0.0 0.00 0.80 0.43 97 1015.7
20260902231058 75 173 0.0 0.0 0.00 0.80 0.43 97 1015.6
20260902231000 75 142 0.0 0.0 0.00 0.80 0.43 97 1015.6
20260902230900 75 142 0.0 0.0 0.00 0.80 0.43 97 1015.6
20260902230759 75 140 0.0 0.0 0.00 0.80 0.43 97 1015.7
20260902230700 75 140 0.0 0.0 0.00 0.80 0.43 97 1015.7
20260902230559 75 140 0.0 0.0 0.00 0.80 0.43 97 1015.7
20260902230500 75 140 0.0 0.0 0.00 0.80 0.43 97 1015.7
20260902230400 75 140 0.0 0.0 0.00 0.80 0.43 97 1015.7
20260902230300 75 140 0.0 0.0 0.00 0.80 0.43 97 1015.7
20260902230201 75 140 0.0 0.0 0.00 0.80 0.43 97 1015.7
20260902230059 75 140 0.0 0.0 0.00 0.80 0.43 97 1015.7
20260902230004 75 140 0.0 0.0 0.00 0.80 0.43 96 1015.7
20260902225900 75 140 0.0 0.0 0.00 0.80 0.43 96 1015.7
20260902225802 75 140 0.0 0.0 0.00 0.80 0.43 96 1015.7
20260902225600 75 140 0.0 0.0 0.00 0.80 0.43 96 1015.7
20260902225504 75 140 0.0 0.0 0.00 0.80 0.43 96 1015.7
20260902225400 75 140 0.0 0.0 0.00 0.80 0.43 96 1015.7
20260902225301 75 140 0.0 0.0 0.00 0.80 0.43 96 1015.7
20260902225202 75 140 0.0 0.0 0.00 0.80 0.43 96 1015.7
20260902224900 75 140 0.0 0.0 0.00 0.80 0.43 96 1015.7
20260902224701 75 139 0.0 0.0 0.01 0.80 0.43 96 1015.7
20260902224600 75 138 0.0 0.0 0.01 0.80 0.43 96 1015.7
20260902224503 75 138 0.0 0.0 0.01 0.80 0.43 96 1015.7
20260902224401 75 138 0.0 0.0 0.01 0.80 0.43 96 1015.6
20260902224300 75 139 0.0 0.0 0.01 0.80 0.43 96 1015.6
20260902224201 75 107 0.0 0.0 0.01 0.80 0.43 96 1015.6
20260902224102 75 108 0.0 0.0 0.01 0.80 0.43 96 1015.7
20260902224004 75 107 0.0 0.0 0.01 0.80 0.43 96 1015.7
20260902223901 75 107 0.0 0.0 0.01 0.80 0.43 96 1015.7
20260902223801 75 107 0.0 0.0 0.01 0.80 0.43 96 1015.8
20260902223701 75 107 0.0 0.0 0.01 0.80 0.43 96 1015.8
20260902223600 75 107 0.0 0.0 0.01 0.80 0.43 96 1015.8
20260902223503 75 107 0.0 0.0 0.01 0.80 0.43 96 1015.8
20260902223401 75 107 0.0 0.0 0.01 0.80 0.43 96 1015.8
20260902223300 75 107 0.0 0.0 0.01 0.80 0.43 96 1015.8
20260902223101 75 107 0.0 0.0 0.01 0.80 0.43 96 1015.8
20260902223003 75 108 0.0 0.0 0.01 0.80 0.43 96 1015.8
20260902222900 75 107 0.0 0.0 0.01 0.80 0.43 96 1015.8
20260902222800 75 107 0.0 0.0 0.01 0.80 0.43 96 1015.8
20260902222700 75 107 0.0 0.0 0.01 0.80 0.43 96 1015.8
20260902222601 75 107 0.0 0.0 0.01 0.80 0.43 96 1015.8
20260902222504 75 107 0.0 0.0 0.01 0.80 0.43 95 1015.8
20260902222400 75 107 0.0 0.0 0.01 0.80 0.43 95 1015.8
20260902222305 75 107 0.0 0.0 0.01 0.80 0.43 95 1015.7
20260902222200 75 107 0.0 0.0 0.01 0.80 0.43 95 1015.7
20260902222003 75 159 0.0 0.0 0.01 0.80 0.43 95 1015.7
20260902221700 75 159 0.0 0.0 0.01 0.80 0.43 95 1015.6
20260902221601 75 159 0.0 0.0 0.01 0.80 0.43 95 1015.5
20260902221502 75 159 0.0 0.0 0.01 0.80 0.43 95 1015.5
20260902221403 75 159 0.0 1.0 0.01 0.80 0.43 95 1015.5
20260902221302 76 159 0.0 2.0 0.01 0.80 0.43 95 1015.5
20260902221202 76 159 0.0 2.0 0.01 0.80 0.43 95 1015.6
20260902220901 76 159 0.0 2.0 0.01 0.80 0.43 95 1015.7
20260902220800 76 159 0.0 2.0 0.01 0.80 0.43 95 1015.7
20260902220700 76 159 0.0 2.0 0.01 0.80 0.43 95 1015.7
20260902220601 76 159 0.0 5.0 0.01 0.80 0.43 95 1015.8
20260902220505 76 159 0.0 5.0 0.01 0.80 0.43 95 1015.7
20260902220401 76 159 1.0 5.0 0.01 0.80 0.43 94 1015.7
20260902220300 76 159 0.0 5.0 0.02 0.80 0.43 94 1015.7
20260902220202 76 159 0.0 5.0 0.02 0.80 0.43 94 1015.7
20260902220100 76 159 1.0 5.0 0.02 0.80 0.43 95 1015.7
20260902220005 76 159 0.0 5.0 0.02 0.80 0.43 95 1015.7
20260902215859 76 159 1.0 5.0 0.02 0.80 0.43 95 1015.7
20260902215759 76 159 1.0 5.0 0.02 0.80 0.43 95 1015.6
20260902215700 76 159 4.0 5.0 0.02 0.80 0.43 95 1015.6
20260902215600 76 141 3.0 3.0 0.02 0.80 0.43 95 1015.6
20260902215502 76 140 0.0 3.0 0.02 0.80 0.43 95 1015.6
20260902215359 76 140 0.0 3.0 0.02 0.80 0.43 95 1015.6
20260902215300 76 140 0.0 3.0 0.02 0.80 0.43 94 1015.7
20260902215159 76 140 0.0 3.0 0.02 0.80 0.43 94 1015.7
20260902215059 76 140 2.0 3.0 0.02 0.80 0.43 94 1015.7
20260902215002 76 140 0.0 3.0 0.02 0.80 0.43 95 1015.7
20260902214859 76 140 0.0 3.0 0.02 0.80 0.43 95 1015.8
20260902214759 76 140 0.0 3.0 0.01 0.79 0.42 94 1015.8
20260902214659 76 140 0.0 3.0 0.01 0.79 0.42 94 1015.8
20260902214559 76 140 2.0 3.0 0.01 0.79 0.42 95 1015.8
20260902214502 76 140 0.0 2.0 0.01 0.79 0.42 95 1015.8
20260902214359 76 140 0.0 2.0 0.01 0.79 0.42 95 1015.9
20260902214300 76 140 0.0 2.0 0.01 0.79 0.42 95 1015.9
20260902214200 76 140 0.0 2.0 0.01 0.79 0.42 95 1015.9
20260902214059 76 140 0.0 2.0 0.01 0.79 0.42 95 1015.9
20260902214002 76 140 0.0 2.0 0.01 0.79 0.42 95 1015.9
20260902213859 76 140 0.0 2.0 0.01 0.79 0.42 95 1016.0
20260902213801 76 140 1.0 2.0 0.01 0.79 0.42 95 1016.0
20260902213659 76 140 0.0 2.0 0.01 0.79 0.42 95 1016.0
20260902213600 76 140 0.0 2.0 0.01 0.79 0.42 95 1016.0
20260902213502 76 142 0.0 2.0 0.01 0.79 0.42 95 1016.0
20260902213359 76 142 1.0 2.0 0.01 0.79 0.42 95 1016.0
20260902213300 76 142 2.0 2.0 0.01 0.79 0.42 95 1016.0
20260902213159 76 142 0.0 1.0 0.01 0.79 0.42 95 1016.0
20260902213059 76 142 0.0 2.0 0.01 0.79 0.42 95 1016.0
20260902213003 76 142 0.0 2.0 0.01 0.79 0.42 95 1016.0
20260902212859 76 142 0.0 2.0 0.01 0.79 0.42 95 1016.0
20260902212759 76 142 0.0 2.0 0.01 0.79 0.42 95 1016.1
20260902212700 76 142 0.0 2.0 0.01 0.79 0.42 95 1016.1
20260902212559 76 142 0.0 3.0 0.01 0.79 0.42 95 1016.1
20260902212502 76 142 0.0 3.0 0.01 0.79 0.42 94 1016.0
20260902212400 76 142 0.0 3.0 0.01 0.79 0.42 94 1016.0
20260902212058 76 142 0.0 5.0 0.01 0.79 0.42 95 1015.9
20260902212003 76 142 1.0 5.0 0.01 0.79 0.42 94 1016.0
20260902211900 76 142 1.0 5.0 0.01 0.79 0.42 94 1016.0
20260902211759 76 79 0.0 5.0 0.01 0.79 0.42 95 1016.0
20260902211559 76 79 1.0 5.0 0.01 0.79 0.42 95 1016.0
20260902211502 76 82 2.0 5.0 0.01 0.79 0.42 95 1016.0
20260902211402 76 187 0.0 5.0 0.01 0.79 0.42 95 1016.0
20260902211259 76 187 2.0 5.0 0.01 0.79 0.42 95 1016.0
20260902211159 76 111 1.0 5.0 0.01 0.79 0.42 95 1016.0
20260902211101 76 112 0.0 5.0 0.01 0.79 0.42 95 1016.1
20260902211002 76 109 2.0 5.0 0.01 0.79 0.42 95 1016.0
20260902210859 76 71 1.0 5.0 0.01 0.79 0.42 95 1016.1
20260902210800 76 65 1.0 5.0 0.01 0.79 0.42 95 1016.0
20260902210659 76 184 0.0 5.0 0.01 0.79 0.42 95 1016.1
20260902210600 76 184 0.0 5.0 0.02 0.79 0.42 95 1016.0
20260902210502 76 184 0.0 5.0 0.02 0.79 0.42 95 1016.0
20260902210300 76 188 1.0 5.0 0.01 0.78 0.41 95 1016.1
20260902210200 76 174 5.0 5.0 0.01 0.78 0.41 95 1016.0
20260902210004 76 148 2.0 3.0 0.01 0.78 0.41 95 1016.1
20260902205859 76 148 0.0 3.0 0.01 0.78 0.41 95 1016.1
20260902205800 76 151 0.0 3.0 0.01 0.78 0.41 95 1016.1
20260902205700 76 113 0.0 3.0 0.01 0.78 0.41 95 1016.1
20260902205559 76 113 2.0 2.0 0.01 0.78 0.41 95 1016.1
20260902205501 76 142 0.0 2.0 0.01 0.78 0.41 96 1016.1
20260902205100 76 138 0.0 2.0 0.01 0.78 0.41 95 1016.2
20260902205002 76 138 0.0 2.0 0.01 0.78 0.41 95 1016.2
20260902204859 76 138 0.0 2.0 0.01 0.78 0.41 95 1016.2
20260902204801 76 142 0.0 2.0 0.01 0.78 0.41 95 1016.2
20260902204559 76 142 0.0 5.0 0.01 0.78 0.41 95 1016.2
20260902204359 76 175 0.0 5.0 0.02 0.78 0.41 95 1016.2
20260902204259 76 175 0.0 5.0 0.02 0.78 0.41 95 1016.2
20260902204159 76 175 0.0 5.0 0.02 0.78 0.41 95 1016.2
20260902204100 76 175 1.0 5.0 0.02 0.78 0.41 95 1016.1
20260902204002 76 175 0.0 5.0 0.02 0.78 0.41 95 1016.1
20260902203859 76 175 0.0 5.0 0.02 0.78 0.41 95 1016.1
20260902203800 76 181 3.0 5.0 0.02 0.78 0.41 95 1016.1
20260902203600 76 175 1.0 3.0 0.02 0.78 0.41 95 1016.2
20260902203503 76 139 0.0 3.0 0.02 0.78 0.41 95 1016.1
20260902203400 76 139 0.0 4.0 0.02 0.78 0.41 95 1016.1
20260902203300 76 138 1.0 4.0 0.02 0.78 0.41 95 1016.1
20260902203159 76 138 0.0 4.0 0.02 0.78 0.41 95 1016.1
20260902203101 76 141 0.0 4.0 0.02 0.78 0.41 95 1016.1
20260902203003 76 134 0.0 4.0 0.02 0.78 0.41 95 1016.1
20260902202859 76 134 1.0 5.0 0.02 0.78 0.41 95 1016.1
20260902202700 76 184 1.0 5.0 0.02 0.78 0.41 95 1016.2
20260902202600 76 187 1.0 5.0 0.02 0.78 0.41 96 1016.2
20260902202500 76 187 2.0 5.0 0.02 0.78 0.41 96 1016.2
20260902202259 76 159 4.0 5.0 0.02 0.78 0.41 96 1016.1
20260902202059 76 144 1.0 5.0 0.02 0.78 0.41 97 1016.1
20260902202003 76 188 1.0 4.0 0.02 0.78 0.41 97 1016.1
20260902201900 76 153 0.0 2.0 0.02 0.78 0.41 97 1016.1
20260902201801 76 153 2.0 3.0 0.02 0.78 0.41 97 1016.1
20260902201659 75 153 1.0 3.0 0.02 0.78 0.41 97 1016.1
20260902201559 75 153 1.0 3.0 0.02 0.78 0.41 97 1016.1
20260902201503 75 153 0.0 4.0 0.02 0.78 0.41 97 1016.0
20260902201401 75 153 1.0 4.0 0.02 0.78 0.41 97 1016.0
20260902201200 75 124 0.0 4.0 0.02 0.78 0.41 97 1015.9
20260902201001 75 124 0.0 4.0 0.02 0.78 0.41 97 1015.9
20260902200900 75 123 1.0 4.0 0.02 0.78 0.41 97 1015.9